ECMWFFLT2_sfc_temp_000.txt.gz
Temp
93 95 94 93 96 77 86 86 79 84 91 89 77 74 75 75 72 67 78 75 81 88 89 91 91 89 89 88 88 89 88 89 89 89 91 92 92 91 90 90 90 89 90 89 90 89 90 90 90 89 87 87 87 86 86 85 86 86 85 85 85 85 84
88 93 96 93 92 95 90 80 87 90 93 90 78 70 69 70 66 69 75 72 75 76 71 86 86 86 89 89 87 90 88 88 87 88 89 90 91 91 90 90 90 90 89 89 90 91 91 91 90 88 87 88 87 88 87 86 85 84 85 85 85 85 84
87 93 93 89 91 94 91 89 96 83 72 70 77 72 64 65 65 67 73 75 76 78 76 82 82 84 86 88 87 87 87 88 87 88 88 89 91 91 90 90 89 89 89 89 89 91 93 91 89 89 88 88 88 88 88 88 86 86 86 86 85 84 84
87 90 91 78 86 90 90 92 90 92 85 79 72 73 75 72 65 65 67 72 70 80 82 84 83 85 86 88 87 86 88 89 88 88 89 88 88 89 90 90 89 89 90 91 93 92 92 90 89 90 91 92 92 90 87 86 87 86 85 85 84 83 84
88 79 87 84 87 82 84 85 85 86 84 87 86 81 76 73 67 67 66 66 74 83 88 86 86 87 88 89 87 86 88 90 90 90 89 88 88 89 90 90 90 90 91 93 93 93 92 92 90 92 93 92 92 91 88 87 85 85 85 85 85 84 84
80 85 92 89 89 92 88 86 84 86 81 75 71 69 82 79 71 61 66 63 75 85 89 87 88 90 91 91 90 89 89 90 90 89 90 89 89 90 90 92 93 92 91 91 92 92 92 91 92 93 93 92 92 91 91 90 91 89 88 86 84 84 83
83 87 87 88 88 89 91 91 89 92 88 85 77 61 70 78 78 78 75 68 72 88 89 90 89 90 91 90 91 90 91 90 91 90 92 90 90 90 92 93 94 93 91 90 90 89 89 88 89 90 90 91 90 90 90 89 88 88 90 88 86 84 83
86 87 89 87 87 89 87 91 92 92 87 88 84 80 78 74 75 70 72 65 75 84 83 87 87 84 87 87 88 87 91 92 91 90 90 88 88 90 92 93 93 91 91 90 88 87 86 86 87 88 88 88 89 89 90 91 89 88 88 88 88 85 83
75 80 83 85 87 88 87 86 89 90 91 89 87 82 81 72 76 75 71 63 75 80 82 83 85 88 90 91 91 88 87 90 91 90 89 88 88 88 90 90 90 89 89 87 84 84 84 85 86 87 86 86 88 87 90 91 90 89 88 87 86 85 84
60 59 61 66 73 79 87 88 89 88 87 84 81 75 74 64 71 73 70 71 79 83 83 85 87 88 88 91 92 94 90 88 89 90 89 87 87 86 87 87 87 87 86 85 84 84 84 85 86 85 85 86 87 87 87 90 90 88 87 88 87 86 86
72 74 77 86 87 86 79 84 84 84 87 88 85 81 74 69 68 70 67 74 77 80 83 84 86 87 87 89 90 89 89 88 87 87 87 87 86 85 86 86 86 86 84 83 84 84 85 86 86 86 86 86 87 85 86 88 88 88 86 85 84 84 85
81 84 80 87 87 84 85 84 83 86 85 85 82 78 73 76 72 64 69 72 75 78 83 85 85 87 87 88 89 90 89 88 87 87 85 84 86 86 86 85 84 84 83 84 84 84 85 86 86 87 87 87 86 85 86 87 88 88 87 84 84 83 83
84 84 85 86 86 86 86 86 85 83 84 83 80 78 82 77 73 70 71 72 74 79 84 87 87 87 87 89 90 91 91 90 88 86 85 85 85 85 85 83 84 83 83 83 84 85 85 86 86 86 87 86 86 86 87 86 88 87 86 84 83 83 83
82 80 82 84 85 84 85 85 86 86 85 83 83 83 85 81 76 79 79 74 75 82 85 87 88 89 89 89 89 89 88 89 87 86 85 85 85 85 84 83 84 84 84 84 84 84 85 86 85 86 86 85 85 86 86 88 86 87 85 83 82 82 82
77 80 81 83 84 83 81 85 86 85 85 85 85 85 83 80 79 80 79 76 75 85 88 87 88 88 89 88 88 90 89 88 88 86 86 85 85 85 85 84 84 84 84 85 85 84 85 85 85 85 85 86 86 88 89 89 86 86 86 83 82 82 82
74 78 80 80 83 83 82 80 82 83 83 79 82 79 82 77 75 76 76 74 76 85 89 88 87 87 86 85 86 87 87 87 86 85 85 85 85 85 85 84 84 84 85 85 85 85 86 86 86 86 85 86 86 87 88 87 88 88 85 84 83 82 83
73 77 80 79 80 80 75 74 81 82 83 84 85 86 84 82 82 77 73 75 84 85 86 84 85 87 86 86 86 85 85 84 84 84 84 85 85 85 84 84 84 85 86 86 86 87 87 87 87 87 87 87 85 86 86 87 87 86 86 85 83 83 83
73 76 78 80 74 64 67 82 89 86 83 83 80 80 81 82 82 81 84 84 85 85 85 83 83 84 84 84 86 85 84 83 82 83 84 85 86 86 86 86 86 86 87 88 88 88 87 88 91 90 89 87 87 88 88 87 86 85 84 84 84 83 83
72 75 74 68 61 66 77 83 86 88 89 87 83 84 84 84 84 84 84 84 84 85 86 86 86 86 85 85 84 84 85 83 83 83 84 84 85 85 85 85 86 86 87 87 87 87 88 90 90 89 88 88 88 88 88 87 86 84 84 84 83 83 83
76 71 70 58 64 74 79 82 84 85 86 85 83 80 84 85 86 84 83 84 86 86 87 88 87 84 84 85 84 83 85 86 85 85 85 85 86 85 86 85 86 86 87 86 87 87 89 90 90 90 89 90 90 88 89 87 86 85 84 83 83 84 83
66 70 70 69 73 72 75 75 78 83 79 80 78 72 78 85 87 86 84 84 86 87 87 87 85 84 85 83 86 88 88 86 86 87 87 89 88 88 88 89 88 87 88 88 88 87 88 89 89 89 90 91 89 89 88 87 86 86 85 83 83 83 83
75 69 67 67 67 62 69 78 86 90 90 88 86 80 76 85 88 89 86 83 84 85 87 84 83 81 81 80 83 88 91 88 85 87 88 90 89 88 89 88 89 87 88 89 88 89 89 88 89 90 90 90 88 86 86 87 87 86 85 84 84 84 84
71 69 64 64 62 68 78 81 85 88 89 89 86 78 72 84 88 89 87 86 86 86 86 82 81 81 78 81 85 87 88 90 90 88 88 90 91 89 89 89 88 87 87 88 89 89 88 87 89 89 89 89 88 85 85 87 87 86 84 84 84 84 84
71 69 66 64 71 70 78 83 86 89 90 88 82 65 68 83 88 89 88 86 86 87 86 85 82 81 78 82 84 90 89 90 89 86 85 86 87 88 88 90 89 87 87 87 87 88 87 87 89 88 89 88 86 85 86 87 86 84 84 85 85 86 86
68 64 69 73 74 78 82 82 86 88 90 84 69 59 75 86 87 88 88 88 88 88 84 84 82 84 86 85 87 91 92 90 87 87 87 87 88 88 90 89 86 87 87 87 87 87 87 87 89 89 89 87 85 84 84 84 84 85 86 86 86 85 85
70 71 67 67 75 79 82 85 88 88 81 66 67 77 84 87 87 88 89 88 89 89 86 85 86 89 87 87 89 89 89 87 85 87 87 88 88 91 90 87 87 87 89 87 88 90 88 88 90 89 87 84 84 84 83 83 84 87 86 86 86 85 83
75 72 68 62 54 70 83 83 82 83 74 76 79 81 85 88 87 87 88 88 89 89 87 88 87 90 90 89 89 89 87 85 84 85 86 85 86 88 87 86 87 88 87 86 88 90 92 94 90 87 86 83 83 83 82 83 86 87 86 86 84 83 82
67 66 61 60 73 78 84 81 75 78 82 82 81 80 82 87 88 87 86 87 87 88 87 87 87 87 85 85 86 86 86 86 86 86 86 86 87 87 91 91 88 88 86 87 88 90 93 90 87 86 84 82 82 81 82 85 86 86 84 83 82 81 80
71 68 73 75 78 81 84 83 81 83 85 86 85 83 83 83 86 87 85 85 87 86 85 85 85 84 85 84 86 86 86 86 86 85 85 86 86 87 88 92 88 88 88 86 87 87 87 85 85 84 85 82 81 80 83 85 84 83 82 80 80 79 80
77 79 78 82 81 81 83 86 85 85 86 88 86 85 82 85 86 87 85 86 87 85 84 84 84 85 85 84 86 86 86 86 85 85 85 85 86 87 87 85 85 87 88 87 86 84 83 84 83 83 83 83 80 81 84 84 84 83 81 79 79 79 80
68 61 75 77 77 80 81 83 85 87 88 86 86 83 82 82 84 86 87 85 85 85 84 84 84 85 86 85 84 84 83 83 83 84 83 83 84 84 84 83 83 84 85 85 84 84 83 83 84 86 84 84 83 83 83 83 84 82 80 79 78 79 79
71 71 74 77 81 80 81 84 82 81 82 83 84 83 83 82 83 83 84 85 84 85 84 84 84 85 87 85 82 83 83 83 83 83 83 82 82 83 83 82 83 83 83 83 84 83 83 83 83 84 85 85 85 85 86 87 86 81 79 79 79 79 78
75 75 76 76 79 81 82 83 82 82 82 81 82 83 83 84 84 84 84 85 86 85 86 85 86 85 85 85 86 88 85 84 84 83 83 82 82 81 80 80 80 81 81 81 81 81 80 81 81 81 81 84 87 84 84 85 82 80 79 78 77 77 78
69 70 69 73 70 72 78 80 81 80 81 81 81 81 83 84 83 83 83 83 86 87 87 86 86 83 82 85 86 89 86 84 83 83 82 82 82 80 81 81 80 79 78 79 79 79 78 79 79 79 79 80 82 86 84 82 81 79 76 76 75 78 78
67 72 74 73 72 72 75 77 79 80 82 81 79 78 79 82 84 84 83 83 83 84 86 88 87 83 81 83 83 86 86 83 83 83 82 82 81 81 81 81 79 79 78 78 78 77 78 78 79 79 78 80 80 82 81 81 80 77 76 75 75 78 77
74 77 75 75 72 70 74 78 78 80 80 80 81 82 82 82 83 84 84 85 83 82 84 85 87 85 84 84 86 84 83 83 81 80 81 82 81 81 82 81 79 78 78 78 78 77 78 78 78 78 79 80 79 82 80 80 80 78 77 75 75 77 78
72 76 76 75 74 75 78 79 80 82 81 81 80 80 81 81 82 84 83 82 85 84 82 83 85 86 85 84 84 82 81 81 81 79 78 78 79 80 82 81 79 78 78 78 78 78 78 78 78 78 79 79 79 82 80 79 79 77 76 76 77 78 76

ECMWFFLT2_sfc_temp_003.txt.gz
Temp
98 97 100 99 99 78 89 90 82 88 98 92 80 80 84 82 74 71 82 78 82 91 93 95 94 94 93 95 95 96 95 96 95 94 96 96 96 96 95 93 92 90 91 89 89 91 90 90 89 90 89 88 88 87 87 87 87 87 87 87 87 87 87
99 102 102 101 100 100 94 82 91 97 99 95 83 72 74 73 68 72 80 76 78 77 73 93 92 90 92 93 93 96 95 95 94 95 95 94 96 96 95 94 93 92 91 86 88 92 89 90 89 90 89 89 89 88 88 87 87 86 87 87 87 87 86
97 102 101 96 100 102 95 91 101 87 75 72 80 75 65 65 64 67 74 78 78 80 78 85 85 86 89 91 93 93 94 94 92 94 95 94 92 93 93 94 92 91 90 87 86 87 90 92 88 90 90 90 90 89 89 89 87 87 87 88 87 87 87
95 97 95 81 88 97 99 100 94 100 89 81 75 75 76 74 67 68 71 77 73 83 86 87 85 89 89 91 92 92 94 95 94 93 94 95 95 93 94 94 93 92 89 88 89 89 90 90 91 92 91 90 94 91 89 88 89 88 88 87 87 86 87
95 82 89 86 88 84 87 88 86 90 87 93 88 84 76 73 70 69 68 66 74 81 91 91 89 89 90 92 91 91 93 95 97 96 95 94 94 92 91 92 94 93 91 89 88 89 91 95 94 95 93 92 94 93 90 90 88 88 88 87 87 86 86
84 86 95 94 94 93 90 87 84 87 84 79 72 70 86 82 74 63 67 67 78 86 94 89 92 93 94 94 93 93 94 95 95 95 96 95 94 94 90 93 92 90 90 89 87 90 92 96 95 94 94 95 95 93 93 93 93 91 90 87 86 86 86
87 91 97 99 99 99 96 93 89 93 91 86 77 64 73 80 79 83 78 72 76 88 93 93 93 94 95 95 95 93 95 94 96 96 99 96 94 94 97 95 92 92 91 88 86 86 89 92 91 93 93 94 93 94 93 92 92 91 93 91 88 86 85
92 96 100 100 99 98 94 95 95 92 86 87 83 81 82 77 78 74 75 68 77 87 92 94 95 92 94 94 94 92 94 95 96 96 96 94 92 92 95 93 93 92 91 89 87 88 90 90 90 91 92 92 93 94 94 94 93 92 92 92 91 87 85
79 84 89 94 97 95 90 89 93 94 94 91 89 87 86 75 75 76 70 64 74 83 91 90 91 93 94 94 96 94 92 93 95 96 95 94 92 91 91 91 92 92 91 87 87 89 88 88 90 89 90 91 92 92 93 95 93 93 91 91 91 89 87
63 63 66 71 78 82 89 91 92 93 91 89 85 76 78 67 72 75 72 73 74 84 88 89 90 91 90 93 95 98 96 93 93 94 95 92 92 91 90 90 90 90 89 90 88 88 87 89 89 88 89 90 91 90 91 94 94 92 91 92 90 89 89
74 78 80 88 89 88 81 86 88 90 93 93 89 84 78 73 72 71 70 77 78 79 84 86 89 89 89 90 92 92 92 94 94 93 92 92 91 90 92 90 89 89 89 88 88 87 88 89 89 89 89 89 90 88 89 91 91 91 90 89 88 88 88
81 89 86 91 90 86 88 86 87 89 89 90 86 80 77 79 76 69 73 76 76 80 85 87 88 90 90 91 90 92 93 93 94 93 90 88 91 91 91 90 91 90 88 88 87 87 88 88 88 89 89 89 88 87 88 90 90 91 91 88 87 86 86
87 90 90 92 91 91 90 89 88 88 89 89 84 80 84 82 76 73 74 76 76 81 87 89 90 91 90 92 92 94 95 95 94 92 90 89 90 90 90 89 90 90 88 87 86 87 86 87 87 87 88 88 88 87 88 86 90 90 89 87 86 86 85
86 88 89 91 91 89 89 88 89 90 90 88 87 86 88 87 80 83 81 77 79 86 87 91 91 93 93 92 94 94 93 94 91 92 91 90 88 90 90 89 90 90 89 87 86 86 86 86 86 87 87 87 87 86 82 85 88 90 89 86 85 84 84
83 88 90 91 91 88 85 88 89 90 90 89 89 88 88 87 85 86 85 80 79 89 91 89 92 93 92 91 91 92 91 92 93 93 93 92 91 90 90 89 89 89 89 87 86 86 86 87 86 86 86 87 86 83 83 91 88 89 89 86 84 84 83
78 84 88 89 88 88 86 86 89 89 88 85 87 84 87 85 79 81 82 77 79 88 91 93 93 90 89 88 89 90 90 93 92 91 91 91 91 91 91 90 89 88 88 87 86 86 87 87 87 87 86 86 83 81 86 90 91 90 88 86 85 83 84
73 82 87 84 83 82 78 80 85 89 90 90 91 91 90 89 88 81 75 78 86 88 90 88 88 91 90 90 90 89 89 89 91 90 89 90 91 91 91 90 89 89 90 89 87 88 88 88 87 88 87 86 77 83 87 89 90 89 88 88 85 84 84
72 80 83 83 74 65 68 86 94 93 90 89 86 86 87 89 85 83 86 86 88 89 89 86 86 87 87 88 90 91 88 88 88 90 90 91 92 93 93 92 91 90 90 90 89 90 89 89 91 90 89 82 84 86 90 89 88 88 87 86 85 85 84
72 78 79 71 63 65 82 92 95 94 93 91 89 89 89 89 88 87 86 87 87 88 89 89 88 89 90 92 91 92 94 91 89 88 90 89 89 90 91 91 92 90 89 89 88 88 90 91 90 90 89 91 87 89 90 89 88 86 86 86 85 85 84
78 73 73 58 62 79 87 89 90 93 93 92 88 84 88 89 89 88 86 87 89 89 89 90 91 91 91 92 91 91 93 94 92 91 91 92 92 90 91 90 90 89 90 89 89 88 91 91 91 91 91 92 92 90 91 90 88 86 86 84 85 85 84
69 72 71 70 75 75 80 80 83 88 82 84 81 74 80 87 89 89 87 88 89 90 90 91 92 92 92 88 89 95 96 93 94 94 93 96 94 93 92 93 91 90 91 91 90 87 89 91 91 91 92 93 91 90 90 90 88 87 86 84 84 84 85
77 69 69 70 68 62 72 80 89 93 94 92 91 83 78 87 91 92 89 86 87 87 89 90 90 89 83 81 85 94 98 97 93 94 95 96 95 93 94 92 93 90 91 92 90 91 91 91 92 92 93 92 90 89 89 90 89 88 86 85 85 84 85
74 71 65 65 62 69 81 83 89 92 95 94 91 80 73 86 90 91 91 89 89 88 88 88 88 84 79 81 86 93 95 97 98 95 95 97 96 94 93 93 92 91 91 90 90 91 91 90 90 91 92 91 90 88 88 90 90 87 85 85 86 85 85
74 72 68 66 71 71 81 87 91 96 96 94 85 66 68 86 91 93 92 89 89 89 89 89 87 82 79 82 87 94 96 97 97 93 91 92 92 92 92 94 92 90 89 89 88 90 89 89 91 91 92 91 89 88 89 90 88 87 86 86 86 87 87
71 65 71 73 75 82 86 89 92 94 95 89 71 60 76 87 89 90 90 89 90 89 88 89 84 87 88 89 92 97 98 97 94 94 94 93 94 93 94 93 88 90 90 89 89 89 89 89 91 91 91 90 88 87 87 86 85 86 88 88 87 87 86
69 72 69 70 76 82 88 91 93 94 85 69 67 80 85 89 89 91 91 90 91 90 89 89 90 91 94 95 96 96 96 96 92 93 94 94 95 96 93 88 88 90 91 89 91 92 90 90 91 92 90 87 86 86 85 85 86 88 88 88 87 87 85
75 71 67 65 57 73 88 90 89 89 77 74 80 84 88 91 90 90 90 90 90 91 88 91 90 92 95 96 95 95 95 93 90 91 92 91 92 92 90 88 91 91 90 90 92 92 93 94 93 92 91 87 86 86 85 85 87 88 88 88 87 86 84
69 67 63 60 74 82 90 88 75 79 85 86 86 85 86 90 91 89 90 90 90 90 89 88 89 90 91 92 92 92 92 89 89 92 91 91 92 91 94 94 92 94 90 90 91 92 94 92 92 91 89 86 85 84 83 86 86 86 86 87 86 85 84
72 68 72 77 83 85 90 87 83 87 88 89 88 88 87 87 89 91 88 88 90 91 89 89 88 88 90 91 93 91 89 89 89 90 89 91 92 92 93 94 93 93 93 90 90 91 92 91 89 88 88 85 84 82 84 85 86 87 87 86 85 84 83
81 82 83 85 84 85 88 92 91 90 91 91 90 88 85 86 88 89 88 89 90 90 90 89 87 87 89 90 91 91 92 91 90 89 90 90 92 93 94 92 90 92 89 89 91 90 86 84 84 83 86 85 82 80 83 85 83 82 81 81 81 80 81
71 64 80 82 81 83 86 87 89 91 90 90 89 86 85 86 88 89 89 88 88 89 89 88 86 87 90 90 89 89 89 90 88 88 88 89 90 90 89 88 88 90 91 91 89 86 82 84 86 86 85 85 83 84 86 86 84 83 82 81 80 80 79
73 70 80 83 86 83 86 87 84 84 85 87 88 87 87 87 88 89 89 89 88 90 89 89 87 88 90 90 88 89 88 87 86 84 86 85 86 86 86 87 87 87 86 86 89 86 83 82 83 84 84 86 87 88 90 91 90 84 81 81 81 79 80
80 80 81 81 82 84 84 85 83 84 84 85 86 86 87 89 88 88 89 91 90 90 89 90 89 87 88 89 85 86 84 81 83 81 83 84 84 84 85 85 85 84 85 85 84 83 83 85 85 85 85 88 91 89 88 88 87 83 81 80 81 81 81
73 70 72 75 72 74 81 81 82 83 85 85 85 85 86 86 85 85 87 89 92 91 91 90 88 85 83 86 83 85 82 81 77 80 83 83 85 84 85 84 84 83 82 83 83 82 82 83 84 84 84 85 87 92 91 87 84 82 80 80 80 81 82
71 75 77 75 75 76 77 80 82 83 85 84 83 83 83 85 86 87 86 86 86 85 86 89 83 83 84 85 86 84 79 77 76 79 83 82 83 83 84 83 83 82 82 82 81 81 82 82 83 83 83 85 84 87 84 84 83 81 80 78 79 81 80
79 80 77 78 75 73 77 81 82 84 84 83 83 85 85 85 85 86 85 85 84 83 84 84 81 78 76 82 85 79 79 82 80 80 81 81 81 83 84 84 82 81 80 80 80 79 81 82 82 82 84 84 82 86 84 83 82 79 78 78 77 79 81
77 78 79 79 77 79 82 83 84 85 85 84 82 83 84 84 86 86 84 83 84 85 83 81 82 85 86 83 85 82 81 83 82 78 79 80 81 82 86 85 80 78 78 79 80 81 81 81 81 82 82 82 83 84 83 83 81 80 78 78 79 80 80

ECMWFFLT2_sfc_temp_009.txt.gz
Temp
89 89 91 91 91 66 73 78 66 70 81 77 64 68 73 70 65 58 71 69 71 76 76 81 80 81 81 83 82 83 82 84 82 82 83 85 83 84 84 84 82 82 83 83 83 83 83 82 82 81 80 80 79 78 78 76 76 76 76 76 75 76 75
87 93 92 92 93 90 79 68 72 84 89 84 69 58 61 59 54 58 68 61 61 65 57 74 76 78 80 80 80 83 83 83 82 82 82 83 83 83 84 84 83 83 83 83 83 84 84 83 83 81 80 80 80 79 79 77 76 76 76 76 75 75 75
89 94 91 88 90 96 80 78 89 76 60 64 67 66 53 53 53 53 59 67 66 65 65 73 70 76 76 77 77 79 80 81 81 80 82 83 83 82 83 83 81 82 82 83 83 84 85 84 83 82 81 81 80 80 79 79 77 77 77 77 76 75 76
87 89 85 69 75 88 92 88 82 88 74 66 61 63 60 55 51 56 54 63 55 69 67 74 77 77 76 77 77 78 81 82 82 80 82 83 81 81 83 83 82 82 84 85 85 84 84 83 82 82 82 82 81 80 79 79 79 78 77 76 76 75 75
87 72 78 74 73 69 76 77 73 77 77 77 74 71 67 54 50 50 53 51 58 64 73 77 75 76 77 78 76 74 79 79 82 83 83 83 81 81 83 83 83 83 84 85 86 86 85 84 83 84 83 82 82 81 80 80 77 77 77 77 76 75 75
73 74 85 85 85 82 76 75 70 71 69 64 61 54 77 70 57 47 53 52 59 72 81 76 77 75 78 78 77 76 79 81 79 82 82 80 78 79 82 84 84 85 84 85 86 85 84 84 84 84 83 83 82 81 81 81 80 79 79 77 76 75 75
76 83 87 91 91 89 86 80 75 79 74 73 64 49 57 69 66 72 59 55 58 72 76 75 78 79 80 78 78 78 78 80 81 83 84 81 81 80 82 84 85 85 84 84 84 83 82 82 82 83 82 83 82 82 82 81 80 80 81 79 77 76 76
83 87 89 90 92 89 84 84 83 81 76 76 71 63 63 63 63 60 60 55 57 65 74 77 78 77 82 80 80 79 79 79 81 83 82 79 79 80 83 86 86 85 84 84 82 81 81 81 81 82 82 82 82 82 82 82 81 81 81 80 79 77 76
65 73 76 82 88 88 78 75 81 84 83 83 79 74 68 63 62 62 56 48 55 66 73 74 77 80 80 80 82 79 78 77 78 78 81 80 79 80 81 82 83 83 82 81 81 80 80 81 81 82 81 82 82 81 83 83 82 82 82 80 79 78 77
52 52 50 52 65 74 77 81 81 80 82 79 72 65 61 54 58 64 56 57 61 68 73 75 75 75 76 77 80 82 79 77 79 79 78 79 79 78 80 80 80 81 81 80 80 80 80 80 81 81 81 82 82 82 82 84 83 82 81 81 80 79 78
55 60 59 74 77 75 72 78 80 81 81 80 75 68 60 53 48 59 51 63 62 67 71 73 74 78 76 76 75 77 78 79 79 75 77 78 78 79 80 80 81 80 78 78 79 80 80 80 81 81 81 81 82 81 81 84 83 82 81 80 79 79 79
66 73 72 81 83 75 79 79 79 81 80 79 75 68 66 60 58 48 53 63 64 67 71 71 73 76 76 74 74 78 78 79 78 77 75 80 78 78 80 78 79 79 79 79 78 78 79 80 80 81 81 81 81 80 81 83 83 83 82 80 79 78 77
76 79 80 82 82 82 79 80 82 80 81 79 75 68 74 67 62 59 60 64 66 70 75 75 75 74 76 81 77 77 76 77 75 76 77 76 79 79 79 78 77 79 79 78 78 78 79 80 80 80 80 80 80 80 82 81 82 82 80 79 78 77 77
80 80 81 80 81 81 82 82 81 82 82 80 79 78 77 72 63 67 68 64 69 73 74 79 79 77 78 77 79 79 78 78 76 76 75 77 76 77 79 79 78 78 80 79 79 79 78 79 79 80 79 79 80 80 80 78 79 79 78 78 77 76 75
70 77 80 81 81 80 77 78 80 80 78 77 77 79 80 78 72 71 72 66 66 74 80 80 76 77 79 78 78 79 76 77 79 77 77 75 76 76 78 77 78 78 79 80 79 79 78 79 79 79 80 80 80 81 79 77 77 78 79 77 76 76 75
64 75 76 79 81 80 77 76 78 79 80 76 77 74 77 71 67 70 67 63 62 71 76 78 76 75 75 74 75 74 74 77 76 74 75 75 75 75 74 77 78 78 78 78 78 78 79 79 79 79 79 79 76 69 70 69 73 77 78 77 75 74 74
61 72 77 77 79 77 72 72 77 79 78 77 79 79 80 79 80 71 64 62 69 71 75 75 73 77 74 72 73 73 75 74 75 76 77 76 76 75 75 75 77 78 79 79 78 79 80 80 79 80 78 71 66 68 68 69 69 71 73 73 72 72 70
61 72 74 75 66 56 56 74 80 78 75 76 74 73 76 76 74 69 71 74 75 77 76 74 72 74 75 75 74 76 74 72 74 77 76 77 77 78 77 76 76 79 80 80 80 80 79 79 78 74 71 68 69 69 70 70 71 71 69 69 69 70 70
59 64 65 57 53 54 69 76 80 81 80 79 75 76 77 78 75 76 76 75 76 75 76 75 74 74 74 76 77 78 78 74 72 73 75 75 76 75 75 76 78 75 79 80 79 77 77 76 71 69 69 70 70 70 70 70 69 68 69 69 68 69 70
62 60 58 48 50 64 75 77 80 81 79 77 75 69 74 75 77 73 72 74 76 75 75 76 76 76 77 77 75 76 79 82 81 79 76 76 76 77 79 79 78 77 76 78 79 76 74 72 72 71 70 71 71 68 68 67 66 67 68 68 69 70 71
57 58 56 55 64 67 70 71 73 74 69 71 68 61 64 76 77 76 74 73 74 74 74 75 76 76 77 72 74 82 85 79 80 83 80 82 80 79 77 79 78 76 75 79 77 72 72 72 70 69 70 70 68 68 68 68 68 68 68 68 69 70 73
60 55 53 55 56 52 58 66 76 82 84 83 79 70 63 73 77 78 74 72 73 74 77 76 75 74 70 66 71 78 82 85 82 80 82 86 83 83 80 79 80 81 79 75 71 72 71 69 69 69 69 69 69 68 67 67 68 67 68 70 71 71 73
62 59 53 53 52 56 67 69 78 80 83 84 78 70 57 68 73 77 79 75 74 74 74 72 71 66 62 66 74 78 80 83 86 84 83 83 83 82 81 80 74 71 70 69 70 69 68 66 67 68 68 68 69 68 67 67 68 68 68 70 71 73 75
60 59 56 52 60 59 65 77 78 83 83 83 70 56 51 67 73 76 78 77 76 76 77 77 72 68 62 67 70 79 84 84 84 78 78 77 79 80 81 73 68 69 70 69 69 69 68 66 67 68 68 67 66 66 66 68 67 68 69 70 73 76 77
59 59 57 62 64 71 76 80 82 82 85 78 60 46 60 72 72 76 78 79 78 77 76 73 69 72 70 73 79 83 82 82 81 81 81 79 80 80 76 68 70 70 70 70 68 68 67 66 67 67 68 67 66 66 67 67 68 70 71 73 75 76 76
56 58 58 57 62 66 72 77 82 80 78 58 56 65 71 74 76 75 78 78 77 77 75 74 73 75 80 81 81 81 81 79 78 78 78 79 81 76 72 71 70 69 69 68 67 67 67 68 68 68 68 68 67 67 67 67 69 73 74 75 75 75 75
59 58 56 52 45 56 77 78 73 73 62 57 65 71 75 78 76 77 76 77 76 76 75 78 76 78 80 81 79 78 78 79 76 75 76 75 75 72 70 69 71 70 67 66 66 67 70 71 70 69 70 69 68 68 68 71 74 75 74 75 74 75 75
51 53 49 47 60 66 80 74 61 67 71 71 71 72 70 74 75 74 73 74 75 76 75 75 76 77 77 78 78 77 76 77 76 75 74 75 76 74 73 72 70 70 66 67 67 70 71 71 69 69 70 69 69 70 71 71 72 72 72 72 72 72 71
59 55 59 66 67 69 77 75 71 74 74 76 76 76 73 72 72 74 74 73 76 76 75 74 74 74 76 74 77 75 74 74 74 73 72 72 73 74 72 71 70 71 70 68 70 70 70 70 70 70 71 71 71 70 71 71 70 71 70 70 70 70 69
70 71 69 73 70 71 74 81 80 80 80 80 78 76 72 72 75 75 74 76 77 77 76 74 72 73 74 74 75 74 73 73 71 70 71 71 73 74 73 72 72 73 73 73 72 70 70 70 71 71 73 73 71 71 71 70 71 70 70 69 69 69 70
53 44 62 68 70 70 74 76 79 81 81 79 77 74 73 75 77 78 76 75 75 76 76 75 73 73 74 71 70 70 69 69 68 69 69 70 70 71 70 72 74 73 74 73 72 72 71 73 74 74 73 73 73 72 71 71 70 69 68 68 67 67 66
57 54 65 69 74 73 74 74 72 74 76 78 78 75 76 76 77 77 78 78 77 77 74 73 72 72 72 70 68 68 68 68 67 67 68 68 69 69 71 72 73 73 73 72 72 71 70 70 70 70 70 70 71 72 75 75 72 70 69 68 66 65 65
61 67 65 68 70 71 73 75 74 74 74 74 76 77 78 78 77 76 78 79 77 77 75 73 71 71 71 72 70 70 68 67 67 67 68 67 67 67 68 68 69 68 68 70 70 69 69 69 69 68 69 71 77 74 75 73 71 70 69 69 68 68 67
54 55 57 63 59 56 62 72 74 73 76 76 75 75 76 75 74 75 76 76 77 78 76 75 73 70 69 71 71 72 69 68 67 67 67 68 69 68 69 69 69 69 69 69 69 69 69 69 71 71 72 72 77 77 76 74 72 70 69 68 68 67 67
51 64 67 65 63 61 63 69 72 73 76 75 75 73 73 74 75 76 75 75 74 74 76 76 73 70 71 72 71 70 70 67 67 68 68 69 69 69 69 68 68 68 68 69 69 68 68 68 69 69 68 68 69 72 74 74 73 71 70 68 69 69 70
69 71 68 69 65 62 66 71 72 73 73 75 76 76 75 74 74 75 74 73 72 72 73 75 74 72 71 72 72 71 70 70 69 70 70 70 70 71 70 69 68 68 69 69 69 68 69 69 70 70 69 69 69 74 74 73 72 70 69 68 66 66 67
65 71 71 69 68 69 72 74 73 73 74 74 73 74 73 74 75 75 73 71 72 74 73 74 72 72 73 72 72 70 70 71 72 72 71 71 72 71 72 71 69 69 70 71 70 70 70 69 68 68 68 70 72 75 73 73 71 70 69 69 69 68 67

ECMWFFLT2_sfc_temp_015.txt.gz
Temp
77 76 77 77 79 59 62 66 61 65 68 68 55 52 51 53 50 51 48 56 56 57 68 66 64 72 73 74 77 77 75 74 75 74 75 76 76 76 76 76 77 76 76 77 77 77 78 77 77 77 77 77 77 76 76 75 75 76 74 74 74 73 73
75 80 80 80 79 75 64 61 64 66 68 64 59 53 45 44 44 45 51 56 53 56 53 58 63 65 68 72 74 77 76 73 73 75 75 76 76 76 77 77 78 77 77 77 78 79 79 78 78 78 77 78 78 77 77 76 76 75 75 75 74 73 72
74 78 76 76 77 79 78 75 72 71 55 58 53 50 48 46 45 43 48 51 48 52 53 58 65 62 64 69 72 73 72 73 74 75 76 76 77 77 76 76 76 76 76 77 77 78 79 79 79 79 79 78 78 78 77 77 76 76 76 76 75 74 73
71 74 71 64 71 74 77 72 70 70 65 51 54 57 50 53 43 44 45 48 56 54 51 62 67 65 66 67 68 72 74 75 76 76 77 76 75 75 76 77 77 77 77 78 79 79 79 79 78 79 79 79 78 78 77 77 77 77 75 75 75 74 74
71 61 65 68 70 63 65 67 62 67 67 62 60 58 52 54 40 40 38 46 44 50 56 63 69 68 67 69 70 72 74 76 77 78 77 76 76 76 77 77 77 77 78 78 79 80 80 80 80 80 80 79 79 79 77 77 76 76 75 75 75 74 73
59 59 66 73 72 74 70 71 67 64 59 59 55 53 56 51 51 40 42 48 45 55 62 64 67 65 67 71 73 73 74 75 76 77 78 77 77 77 78 78 79 78 78 78 79 80 79 79 79 79 80 79 79 78 79 78 78 77 76 75 75 74 73
65 69 73 74 76 77 76 76 70 70 62 58 53 47 50 55 55 53 48 49 52 55 58 63 68 66 70 71 72 73 73 75 76 78 79 78 79 79 79 79 79 79 78 78 78 78 78 78 78 79 79 79 79 79 79 78 77 77 78 77 76 74 73
63 70 72 73 73 73 69 70 70 69 63 63 61 56 52 57 49 54 51 49 43 53 56 59 65 64 67 71 73 73 74 75 77 77 78 77 77 78 80 81 80 79 78 77 76 76 77 77 77 78 78 79 79 79 79 79 78 78 78 77 76 74 72
56 63 65 67 66 71 63 60 66 70 69 70 60 54 52 57 51 54 51 44 47 55 58 64 64 66 70 71 73 74 74 74 76 77 76 77 77 78 77 76 76 75 74 74 75 76 76 77 78 78 78 78 78 78 79 79 79 79 78 77 76 74 73
45 45 48 51 53 59 61 61 67 69 71 66 62 59 57 51 50 51 48 44 47 55 60 69 68 65 66 69 73 74 75 75 75 75 76 76 76 76 76 76 73 73 75 75 75 76 76 77 78 77 78 78 78 79 79 80 79 78 78 78 76 74 73
54 55 51 55 59 57 64 64 68 68 70 71 67 53 51 54 44 53 45 56 57 62 66 64 66 64 68 69 67 70 71 72 75 75 75 75 75 76 76 75 75 75 73 73 75 75 77 77 78 78 78 78 78 78 78 79 79 78 77 77 75 73 72
64 64 61 63 66 66 67 67 67 68 69 66 64 60 60 51 52 46 45 46 63 62 65 65 65 65 66 69 70 72 72 73 74 74 74 77 75 75 75 74 73 73 74 74 74 75 76 77 77 78 78 79 78 78 78 78 79 78 78 75 72 71 68
67 72 69 70 66 66 67 68 69 68 67 64 66 63 59 56 62 56 51 50 61 66 68 70 70 71 71 71 71 74 76 74 71 72 72 72 73 74 74 73 73 73 73 73 74 74 75 76 76 77 77 77 77 77 78 77 78 77 75 72 70 68 68
67 67 70 72 70 70 69 68 68 71 69 66 70 68 60 65 58 63 58 55 62 70 72 73 74 74 74 73 71 69 70 72 71 70 71 72 73 74 74 73 72 72 74 74 73 74 73 75 75 76 76 76 77 77 77 77 77 76 72 70 68 68 68
62 66 69 70 69 68 67 70 70 69 68 68 70 66 60 63 62 57 59 57 60 68 71 75 68 65 63 66 71 73 72 71 71 71 71 72 73 73 72 70 71 71 71 70 71 69 70 72 74 75 76 77 76 77 76 75 75 73 71 68 68 68 68
57 65 67 68 67 67 66 67 69 69 65 62 62 60 61 61 59 54 55 54 58 68 60 63 63 64 67 69 69 69 70 71 71 70 70 71 70 69 69 68 68 68 69 69 69 69 70 71 72 73 73 73 73 74 75 74 73 72 70 69 68 68 68
54 63 66 66 64 62 60 59 61 66 68 66 65 63 63 64 60 55 53 55 68 67 63 66 63 64 65 67 67 66 66 66 67 69 70 69 66 68 66 67 68 68 69 69 69 69 70 72 72 73 73 72 71 71 71 70 70 69 68 68 68 68 68
50 58 62 64 59 51 47 54 63 65 67 70 68 64 63 62 60 58 63 65 62 61 65 67 64 65 65 64 65 63 67 67 64 66 65 66 67 66 66 68 70 71 71 71 72 71 71 71 73 73 73 72 70 70 70 69 69 68 68 67 68 68 68
51 54 58 57 52 48 56 63 69 70 70 68 65 63 63 63 60 61 65 61 63 66 68 68 65 66 66 65 67 67 67 67 68 68 66 66 67 68 67 66 67 67 68 68 68 68 69 71 70 70 70 69 67 68 69 69 68 68 68 67 66 67 67
48 49 53 51 47 57 61 67 68 69 72 71 71 65 65 64 61 60 59 60 61 62 64 66 68 71 69 67 67 67 67 71 73 70 70 69 68 70 69 69 66 66 68 69 69 68 68 69 69 70 68 68 68 67 68 68 68 68 68 67 66 66 66
50 47 46 51 57 61 63 64 66 65 60 65 69 59 62 64 64 61 60 60 62 63 64 65 67 68 70 69 67 68 68 66 67 73 75 73 72 72 69 69 70 68 69 69 68 67 67 68 68 68 68 68 67 66 66 67 67 67 67 66 66 66 66
44 48 45 52 49 47 54 59 66 70 70 69 70 65 59 62 66 63 61 63 62 64 65 66 67 71 72 63 66 67 67 68 65 66 69 69 67 66 66 65 66 66 66 67 67 68 66 66 67 67 67 66 66 65 65 66 66 66 66 66 66 67 66
46 47 48 43 43 51 56 61 66 69 69 69 67 67 56 62 64 65 63 67 67 68 69 67 67 69 63 60 64 64 66 69 69 69 67 69 69 68 68 69 68 66 66 67 67 66 65 65 64 66 66 66 65 65 65 66 66 66 66 66 66 67 67
45 40 40 46 49 52 59 64 67 69 69 67 65 52 52 57 64 64 66 66 64 63 62 62 65 66 63 59 64 65 68 68 68 67 68 67 68 68 68 68 67 67 66 67 65 65 65 65 65 65 65 66 65 65 65 66 65 65 66 67 68 69 69
48 50 47 47 54 59 62 64 67 69 69 60 53 46 54 62 61 63 65 65 64 62 64 65 64 61 62 63 65 68 69 69 68 69 68 67 68 68 67 67 69 65 65 66 66 65 64 64 65 65 66 65 65 65 65 65 65 67 68 68 68 68 68
47 44 44 47 48 58 65 68 67 67 65 51 49 55 59 63 64 65 67 66 66 69 67 67 64 63 66 69 68 68 68 66 65 66 66 66 66 67 67 68 65 63 64 63 63 63 63 64 65 66 65 65 65 65 65 64 66 67 67 67 67 67 67
46 42 44 42 43 54 65 65 62 61 55 55 59 64 65 64 62 63 66 68 66 69 66 65 65 67 68 67 66 65 65 64 64 64 64 63 63 64 64 64 65 65 62 62 63 62 64 65 65 65 65 65 64 64 63 63 65 66 66 66 66 66 66
44 41 40 42 52 57 67 61 56 60 61 63 61 61 62 64 64 63 62 64 66 67 66 66 65 65 65 64 64 66 65 65 64 63 63 63 64 65 66 66 65 64 62 62 63 63 65 64 64 64 64 63 64 63 62 63 65 66 66 65 65 66 66
49 48 48 55 56 59 64 65 63 63 65 67 67 66 64 64 64 63 64 64 65 67 67 67 68 67 64 64 64 64 64 64 64 63 64 64 65 65 64 65 66 65 63 63 63 62 63 63 63 63 63 64 65 63 62 64 64 65 65 65 64 63 63
59 60 58 60 60 61 65 69 69 68 68 67 69 68 65 64 64 65 65 65 66 67 69 69 66 66 65 65 64 63 63 64 64 64 64 65 65 66 65 64 64 64 63 62 61 62 62 63 63 64 63 64 64 63 63 64 63 64 64 63 63 62 62
52 47 56 58 60 61 64 66 68 70 69 68 68 66 66 66 67 68 67 67 67 67 67 67 65 64 65 64 62 63 64 64 63 64 63 64 64 64 64 64 65 63 62 62 62 62 62 62 64 65 64 64 64 64 64 64 64 64 64 64 64 63 64
50 52 56 60 63 61 61 62 65 66 67 68 68 67 67 67 67 67 67 68 68 68 66 65 65 63 64 65 64 63 63 63 64 64 64 64 64 64 64 64 65 62 63 62 62 62 61 62 64 64 65 64 64 64 64 65 64 64 63 63 62 62 62
53 59 60 59 61 61 61 63 63 63 65 66 67 68 67 68 67 66 66 67 67 68 67 67 67 67 66 65 63 64 63 62 62 63 63 63 63 62 63 64 64 63 62 62 62 62 62 63 64 64 65 66 66 64 64 64 64 64 64 65 63 62 62
53 53 57 59 56 51 59 61 64 64 65 67 66 66 66 66 66 66 65 65 67 67 67 66 65 64 64 65 63 65 63 62 63 63 63 62 62 63 63 64 63 63 63 62 63 62 62 63 64 65 65 65 65 67 66 65 65 64 64 64 63 62 62
53 56 60 57 60 59 59 62 63 63 66 67 66 65 65 64 65 66 66 64 64 66 65 64 62 62 62 62 62 63 65 63 63 63 63 63 62 63 63 63 63 63 63 64 63 63 62 64 64 64 64 65 65 65 64 65 65 64 63 62 62 62 64
60 63 62 60 60 60 61 61 61 63 64 67 67 67 67 66 67 67 67 66 65 63 65 65 65 64 64 65 64 63 63 62 61 62 62 62 63 64 64 64 63 63 63 63 63 62 63 63 64 64 64 64 63 63 63 64 64 62 63 63 62 62 63
56 61 63 64 63 62 63 64 64 64 66 67 65 65 66 66 67 67 66 64 65 66 65 65 65 64 64 65 65 64 63 62 63 62 63 63 63 63 63 63 63 64 63 63 63 63 63 63 63 63 62 62 63 63 63 63 64 62 62 63 63 63 62

ECMWFFLT2_sfc_temp_021.txt.gz
Temp
79 83 82 81 85 67 73 74 69 75 84 80 66 63 64 66 65 63 68 67 72 78 81 86 87 84 85 86 86 86 84 85 83 82 84 85 85 85 85 85 85 83 84 84 84 84 85 84 84 83 82 82 82 82 82 81 81 82 81 81 81 81 81
79 85 85 85 84 85 75 68 75 77 81 81 72 64 60 63 59 62 65 66 70 70 68 81 80 82 86 87 85 87 84 83 81 83 83 83 84 85 85 84 84 84 84 84 85 86 86 85 85 83 82 83 83 83 83 82 81 81 81 81 81 81 81
82 80 80 80 85 85 81 78 85 75 64 63 65 67 56 57 56 60 62 67 70 72 72 81 83 84 85 86 86 83 82 82 82 83 84 84 85 85 84 84 84 84 84 84 84 85 87 86 84 84 84 84 84 84 84 84 82 83 83 83 82 82 82
78 79 78 68 75 80 78 81 80 82 78 70 63 67 68 67 60 58 61 61 64 72 77 82 83 86 85 87 86 84 85 84 83 84 85 84 83 83 84 85 85 85 85 86 87 86 86 85 84 85 86 86 86 85 83 83 84 83 83 82 81 81 82
76 69 74 73 77 72 73 75 74 74 76 78 79 74 70 66 62 61 61 58 65 74 80 82 84 86 87 87 85 85 86 86 86 85 85 83 83 83 84 84 85 85 86 87 87 87 87 87 87 87 88 87 87 87 85 85 83 83 83 83 82 82 82
68 74 79 80 81 81 78 76 73 76 72 67 63 62 71 69 67 55 61 60 70 81 84 81 84 87 89 88 86 87 89 89 86 85 86 84 83 83 84 86 87 87 86 86 87 87 87 87 87 87 87 87 87 86 87 86 87 86 85 84 82 82 82
72 77 81 83 85 85 83 81 77 80 79 77 69 58 62 67 69 70 68 65 69 83 82 82 83 86 89 89 86 85 87 88 87 85 87 85 83 84 86 87 88 88 86 85 85 84 84 84 84 85 86 86 86 87 87 87 86 86 88 86 84 82 82
77 78 78 77 77 80 79 80 82 80 75 78 74 73 70 68 67 65 65 61 71 83 72 76 82 82 83 80 80 81 86 87 85 84 84 82 82 83 85 87 88 86 85 84 83 82 82 82 83 84 85 85 86 86 87 88 87 87 87 87 86 83 82
64 70 74 74 75 77 76 75 79 80 81 80 79 75 66 67 68 70 66 58 68 81 72 72 73 78 81 83 85 81 81 83 84 83 82 82 81 81 83 83 84 84 84 82 81 81 81 81 83 83 83 84 85 85 87 87 87 88 87 87 86 84 83
50 50 53 58 64 69 75 76 76 76 78 77 71 66 65 60 65 68 66 67 75 82 75 78 78 78 78 82 84 85 82 80 82 82 82 80 80 80 81 82 82 82 81 81 81 81 81 82 83 82 82 84 85 85 85 87 87 87 87 87 86 84 84
61 64 68 73 76 72 69 72 74 75 77 79 77 72 67 63 61 64 66 72 74 76 81 79 80 78 80 84 85 82 81 82 80 80 80 81 80 80 81 80 81 81 80 80 80 80 82 83 83 83 83 84 85 83 84 86 87 87 86 85 84 84 83
70 74 72 74 75 73 74 73 73 77 76 76 74 69 67 69 65 60 66 66 73 76 81 81 80 81 79 81 83 84 82 81 81 80 78 79 81 81 80 80 80 79 79 79 79 80 81 82 83 83 84 84 84 83 84 85 87 87 86 84 83 82 82
73 76 76 76 73 77 77 77 76 75 76 74 72 70 74 69 68 65 68 63 69 77 83 85 84 83 81 83 83 85 84 81 79 78 79 80 81 80 80 79 79 79 79 79 79 80 81 82 82 82 83 83 83 83 85 84 86 86 85 83 82 82 80
72 73 75 76 72 74 76 77 77 78 77 75 75 75 76 74 70 74 74 67 71 80 84 87 87 86 87 86 84 81 80 83 80 80 78 81 81 81 80 80 80 79 80 79 79 80 80 81 81 82 82 82 83 83 83 85 84 85 84 82 81 81 79
69 73 75 74 73 72 71 75 77 78 78 77 77 78 77 75 74 76 76 70 69 80 85 87 86 80 80 79 80 83 82 82 81 80 80 81 81 82 81 80 80 80 80 80 79 79 79 80 81 81 81 82 82 85 84 84 83 85 84 82 81 80 79
65 71 72 73 73 72 71 72 74 74 74 71 73 71 74 71 68 70 70 68 70 79 82 82 80 80 79 79 79 80 80 83 81 80 81 80 80 81 81 80 79 78 79 79 79 79 80 80 81 81 81 82 82 82 83 83 85 85 83 82 81 79 80
64 71 73 72 71 68 63 66 73 75 74 76 77 77 76 76 77 71 68 71 80 82 82 80 79 81 81 81 81 81 80 79 81 80 81 81 81 81 79 79 78 79 81 80 79 81 81 81 81 82 82 82 81 81 81 82 83 83 81 81 80 79 79
62 67 67 68 63 54 57 74 79 77 75 75 73 74 75 76 78 77 80 81 82 81 79 79 80 79 79 80 81 81 81 79 78 81 82 82 82 82 82 81 81 80 81 81 81 81 80 81 83 82 82 82 82 83 82 82 81 81 80 80 80 79 78
62 64 64 60 53 57 74 75 75 80 81 80 77 78 80 80 78 79 76 79 78 79 80 81 82 83 79 78 79 82 83 80 80 78 79 79 80 80 80 80 81 79 80 80 80 79 81 82 82 82 82 83 83 82 82 81 81 80 80 80 79 79 78
64 60 61 50 56 68 71 72 73 72 76 78 78 75 76 75 78 77 77 79 81 80 78 80 79 79 78 78 75 74 76 80 83 82 81 81 83 81 81 79 78 78 80 80 81 80 82 83 83 84 83 84 84 81 81 81 80 79 79 79 78 78 77
57 60 60 60 65 66 69 68 70 73 70 71 71 66 72 77 76 77 76 79 80 76 75 76 77 79 81 80 78 78 78 76 79 85 86 86 84 82 80 83 81 80 82 82 83 81 81 82 82 83 84 83 82 80 79 80 79 78 78 78 78 77 76
62 59 57 59 59 55 64 68 71 73 73 73 72 71 72 71 74 76 75 75 76 75 76 75 76 78 79 76 79 79 79 78 78 80 82 83 83 83 83 81 81 80 81 81 81 82 81 80 80 80 80 81 80 78 78 78 78 77 77 77 77 76 76
61 59 55 55 52 60 66 67 71 73 73 72 72 69 68 74 75 73 74 74 75 76 75 74 75 77 75 77 80 77 76 78 81 81 81 83 82 81 81 81 80 79 78 78 79 78 78 76 75 77 78 79 79 77 77 77 77 77 76 77 77 76 76
60 58 56 55 61 62 66 69 70 72 73 70 70 61 65 73 73 73 73 74 74 74 76 76 76 77 76 78 78 78 77 78 78 78 76 76 77 77 77 78 77 75 76 76 76 76 75 73 74 76 77 78 77 76 76 77 77 77 76 77 77 77 77
57 54 59 61 63 67 67 67 69 71 72 70 63 57 70 69 72 72 72 75 75 74 73 76 76 71 73 77 76 76 78 77 76 77 77 77 78 78 78 76 76 76 76 76 75 74 73 73 75 76 77 77 75 74 75 75 75 76 77 76 76 76 76
58 59 56 58 63 64 65 69 68 71 68 60 63 68 64 67 71 72 75 75 74 75 75 76 74 73 76 76 77 78 79 77 75 76 77 77 77 78 76 74 75 75 75 72 72 72 72 74 75 76 76 74 73 74 74 74 75 76 76 76 76 76 76
55 55 56 53 48 62 68 65 69 70 63 67 65 66 71 72 72 73 73 75 74 75 72 73 73 75 76 76 76 76 76 76 76 76 76 75 75 75 74 74 75 76 73 72 72 72 75 75 75 76 76 73 73 73 74 74 75 75 75 75 75 76 75
50 49 49 52 60 62 68 65 57 65 66 69 69 71 69 71 73 73 72 72 74 74 73 73 74 75 74 74 75 76 75 75 75 75 75 75 75 75 76 75 75 75 71 71 70 71 73 73 74 75 75 73 73 74 73 74 75 75 75 75 76 75 74
53 51 57 62 63 66 69 68 67 69 71 72 72 72 71 71 71 73 72 72 74 74 75 75 76 74 75 75 77 76 75 75 73 71 70 73 74 74 74 74 74 76 74 71 71 71 71 72 73 74 76 75 73 73 73 74 74 74 74 74 75 74 74
59 63 62 65 65 66 67 71 71 71 72 74 74 73 70 70 72 73 72 73 74 75 76 75 74 75 76 76 78 78 78 77 75 73 73 74 75 75 74 73 73 74 74 74 72 70 70 72 73 73 75 76 75 73 73 74 74 74 74 73 74 74 74
55 47 61 62 61 64 66 67 69 72 72 71 72 69 70 71 73 74 73 73 72 73 74 73 72 74 77 76 75 75 74 74 74 76 74 73 73 74 73 72 73 74 74 74 73 73 71 72 74 76 75 76 76 74 73 75 75 74 73 72 71 72 72
54 54 56 59 62 64 66 66 65 66 68 69 70 70 70 70 71 72 73 74 73 75 73 73 72 72 74 74 74 75 74 73 73 72 72 73 73 72 72 72 73 74 74 74 73 73 72 72 74 75 75 75 75 75 76 77 76 73 72 72 72 72 73
55 58 58 57 59 60 61 67 68 67 67 67 68 70 71 72 72 70 71 72 72 72 72 73 72 71 70 72 74 75 73 72 71 70 71 71 71 72 72 71 72 73 72 72 71 72 72 72 73 73 74 76 78 75 75 76 74 73 72 71 73 73 73
53 54 55 59 52 50 57 61 64 66 68 68 68 70 70 70 70 71 70 70 71 71 72 72 72 69 68 70 71 72 71 71 70 70 70 71 72 72 72 72 72 71 71 72 71 71 71 72 73 73 74 74 75 78 76 75 74 73 71 71 72 71 72
55 62 64 60 59 58 56 58 62 64 66 67 66 64 65 67 69 71 71 70 68 68 68 69 68 66 66 67 70 71 71 70 70 70 70 70 71 71 72 72 71 71 71 71 71 70 71 72 72 73 73 74 73 75 74 74 74 73 72 71 72 74 73
60 63 63 63 61 57 57 59 60 61 65 66 65 66 65 63 64 66 66 68 67 66 66 66 67 67 67 68 69 68 68 70 69 69 70 72 71 72 73 73 71 71 70 70 70 70 71 71 72 72 73 73 72 73 72 73 74 73 73 72 73 74 75
57 62 64 64 63 63 64 64 63 63 64 64 65 65 66 67 67 67 65 65 67 69 66 65 67 68 69 69 69 67 68 69 69 69 69 70 71 72 74 73 71 71 72 72 72 72 71 71 72 72 72 72 72 73 72 73 74 73 73 73 75 76 74

ECMWFFLT2_sfc_temp_024.txt.gz
Temp
88 88 90 90 93 73 83 84 76 81 92 87 78 77 82 81 75 69 81 76 81 91 91 94 94 95 95 98 99 100 98 98 94 93 95 96 96 96 95 94 94 92 93 92 92 92 93 92 91 91 89 89 88 88 88 87 87 88 87 87 87 87 87
89 93 92 92 92 93 87 77 83 92 96 91 80 70 71 69 66 69 79 74 75 77 72 91 92 92 94 96 97 101 99 97 94 94 94 94 95 96 95 94 93 93 93 92 93 94 94 93 93 91 89 90 89 89 89 88 87 86 87 88 87 88 87
88 92 92 88 92 95 87 86 97 82 71 68 78 75 64 64 62 67 74 78 78 78 77 87 87 89 91 94 96 98 99 97 94 95 95 95 96 96 95 95 93 93 93 93 92 94 96 94 91 91 91 91 91 90 90 91 88 89 89 90 89 88 88
87 88 86 73 80 90 92 94 88 92 85 77 72 73 74 74 65 65 68 75 72 81 84 89 89 91 92 95 96 97 99 99 97 96 96 95 93 94 95 95 95 94 95 96 96 95 96 94 92 93 94 94 94 92 90 90 91 90 89 89 88 87 88
86 75 81 78 82 78 80 82 79 84 84 89 85 84 76 70 67 68 67 67 74 84 91 92 91 92 93 94 94 95 98 100 102 99 97 95 94 94 94 95 95 95 96 97 97 97 97 96 95 96 96 95 95 95 93 92 89 90 90 90 90 88 89
76 80 87 86 87 87 85 80 77 82 78 74 69 67 84 79 72 63 68 66 76 90 95 93 93 95 96 97 96 97 99 102 101 101 99 97 94 94 95 96 98 98 96 96 97 97 96 97 97 96 96 96 96 95 96 94 95 93 93 91 89 88 89
78 83 89 92 92 91 89 87 82 86 85 82 74 62 70 78 79 82 78 72 73 93 96 94 94 95 98 98 99 98 100 100 102 100 101 98 95 95 97 97 99 99 96 96 95 93 93 93 93 94 95 96 95 96 95 95 94 94 96 95 92 89 89
85 88 91 91 91 90 86 88 89 86 81 83 79 77 78 75 77 72 74 67 76 92 95 96 96 95 99 99 100 97 99 102 101 99 98 95 93 93 96 97 99 97 97 94 92 91 90 91 91 92 93 94 95 95 96 97 95 95 95 96 95 90 89
71 76 82 84 89 87 83 83 86 88 88 87 86 85 83 73 76 77 71 64 74 87 93 92 94 97 98 99 101 100 96 98 100 98 95 94 92 91 93 94 95 95 95 91 89 89 88 89 91 91 91 92 94 94 96 97 96 97 95 95 95 93 90
56 56 60 63 69 76 82 85 85 87 85 83 80 73 74 67 72 75 72 72 80 90 90 91 92 94 94 98 100 103 101 97 97 96 93 90 90 89 90 91 92 92 90 89 88 88 88 89 90 89 89 91 93 93 94 97 97 96 95 96 96 93 93
68 71 73 81 82 81 75 79 81 83 86 87 84 80 74 70 71 71 73 76 80 84 89 88 91 92 93 95 97 97 97 98 98 93 91 91 89 88 90 89 90 90 88 87 87 87 89 90 90 90 90 91 92 91 92 95 96 95 94 94 92 93 93
76 81 79 84 83 79 80 79 80 83 83 84 81 77 72 78 75 67 74 77 78 81 88 89 89 92 93 94 96 98 99 98 97 96 90 88 90 90 89 89 88 87 87 87 86 87 88 89 89 90 91 91 91 90 91 93 95 96 96 93 92 91 91
79 81 82 84 83 82 81 82 82 80 82 81 78 76 81 79 73 69 76 78 76 81 88 92 92 93 93 96 97 99 101 102 99 93 92 92 91 90 89 87 87 87 87 86 86 87 87 89 88 89 90 90 90 90 92 91 95 94 93 91 90 90 89
78 80 81 83 82 82 82 81 82 83 83 82 82 81 83 82 75 79 80 78 80 86 89 92 94 96 97 98 98 100 100 100 95 95 91 93 93 92 90 88 89 87 87 87 86 87 87 88 87 89 89 89 90 90 90 92 91 93 92 90 88 89 88
74 79 82 83 82 81 79 82 83 84 84 83 84 83 83 82 80 82 82 78 77 88 91 92 95 96 97 97 98 99 97 99 100 95 94 93 93 93 91 89 89 88 88 87 87 86 86 87 87 88 88 89 89 92 91 91 90 92 92 88 87 87 87
70 77 79 80 81 81 80 80 81 81 81 79 82 79 84 80 76 78 79 75 77 86 92 94 94 94 94 94 94 95 96 100 98 94 94 93 92 93 93 91 90 88 88 87 86 86 88 88 88 88 87 89 89 90 90 90 92 93 91 89 88 87 87
66 77 79 79 79 77 72 74 79 82 83 83 85 86 86 85 86 78 74 76 85 87 90 90 91 94 94 94 95 95 96 94 96 94 93 94 94 93 91 89 88 89 90 89 87 88 89 89 88 89 89 90 88 89 89 89 90 90 89 89 88 87 87
66 73 76 78 70 61 64 82 87 85 82 82 80 81 84 87 87 84 87 87 88 90 90 89 88 91 91 93 94 97 95 94 92 94 94 94 95 95 94 92 91 89 90 90 89 89 89 89 91 90 90 90 89 90 90 89 88 88 88 87 87 87 87
64 72 72 64 57 61 78 87 90 90 88 87 84 85 87 88 89 89 87 88 88 90 91 91 92 93 94 96 95 98 99 95 94 91 93 91 92 92 92 90 91 89 88 89 88 88 90 92 91 90 90 91 90 89 89 88 88 87 87 87 86 87 86
69 66 64 53 57 75 83 83 84 86 88 88 86 82 86 88 89 88 86 87 90 90 91 94 95 93 96 97 93 91 96 95 94 95 94 94 94 92 93 89 89 87 89 89 89 89 90 91 91 91 90 93 92 89 89 88 87 87 87 86 86 86 86
59 63 62 62 72 72 76 78 78 80 76 79 79 73 80 87 89 89 87 88 90 92 93 94 95 94 94 89 90 96 95 93 95 97 97 98 95 94 92 93 91 89 90 90 91 89 89 90 91 91 93 93 91 89 88 88 87 86 86 85 86 85 85
66 57 52 60 63 58 64 70 78 82 81 80 78 75 75 87 91 92 90 88 89 90 93 93 93 87 86 83 87 95 98 95 92 95 96 99 97 96 95 93 91 88 90 91 90 90 90 90 90 90 91 90 88 86 86 86 86 85 85 85 86 85 85
62 59 55 54 57 61 69 73 76 80 81 81 80 74 69 83 89 92 92 90 89 90 90 91 86 85 80 83 88 96 97 95 96 94 94 98 98 95 93 92 90 91 89 89 90 89 89 87 87 88 88 87 87 85 85 85 86 86 85 86 85 85 85
64 61 57 56 64 64 67 75 77 80 83 79 75 62 67 83 87 92 93 91 91 91 91 90 84 83 80 84 92 96 95 95 95 92 91 92 92 92 92 93 91 88 87 86 86 86 86 84 86 86 87 88 87 85 84 87 86 86 85 85 86 86 86
63 59 61 62 65 71 73 76 78 81 82 77 65 57 73 74 78 80 82 89 93 92 90 88 83 86 89 87 88 92 93 91 90 91 91 90 91 91 92 89 83 86 86 86 86 85 84 84 86 87 87 86 85 84 85 85 84 85 85 85 84 84 84
63 65 61 62 67 68 73 78 80 82 75 63 64 72 73 77 78 82 83 82 87 89 88 87 89 87 88 89 90 89 89 88 86 88 89 89 90 90 86 83 85 87 88 84 83 83 83 86 87 87 86 83 82 83 84 83 83 85 83 83 83 82 82
68 66 62 58 51 65 75 76 77 77 67 70 71 73 78 81 80 81 82 83 84 85 85 88 85 87 89 88 87 86 85 85 85 85 86 84 85 84 84 85 86 87 84 83 83 84 88 89 87 86 85 82 82 83 82 81 82 83 83 82 82 82 81
61 61 56 57 70 71 77 75 68 72 72 75 76 76 76 80 81 81 80 81 83 86 84 84 84 84 83 83 83 83 83 84 84 84 84 85 86 87 89 88 86 85 82 83 84 85 86 85 85 86 84 81 81 81 79 81 82 81 81 81 81 81 81
67 65 68 70 72 75 78 76 73 74 77 79 79 79 78 79 80 81 81 80 83 85 84 83 83 82 84 83 85 83 84 84 84 84 84 84 84 85 84 85 84 84 83 80 80 80 81 81 82 83 83 81 80 78 79 81 81 81 81 81 81 79 80
69 71 71 73 73 73 76 80 79 78 79 81 80 79 78 79 80 82 81 83 84 85 86 84 83 83 84 84 84 84 83 82 81 81 82 83 84 85 85 83 82 82 82 82 80 78 79 80 80 81 84 83 79 78 80 80 81 81 80 80 80 80 80
65 57 68 69 68 71 75 76 78 80 80 80 80 77 78 80 82 83 84 83 83 84 84 83 82 83 84 82 82 81 81 82 81 81 80 80 80 80 80 82 83 84 85 85 82 81 79 82 84 85 84 84 81 80 80 82 82 80 80 80 79 80 79
66 62 64 65 68 69 71 73 73 74 76 78 80 81 80 81 82 82 82 84 84 85 83 83 83 83 84 82 81 81 81 80 80 80 80 79 79 80 81 82 83 83 83 82 80 80 79 81 82 84 84 83 83 83 85 85 83 80 79 79 79 79 79
65 67 67 67 69 68 67 67 68 71 74 76 78 79 81 83 81 80 81 82 81 83 83 82 80 79 81 82 81 81 80 80 79 79 79 79 79 80 80 80 81 81 81 80 80 80 80 82 83 83 84 86 86 84 85 83 81 80 78 78 80 80 79
64 63 64 68 64 58 58 60 62 64 72 76 73 75 77 78 79 79 79 79 80 81 81 81 80 78 77 79 80 81 79 78 78 79 80 80 81 80 81 81 81 80 80 80 79 79 79 80 81 81 82 83 85 87 85 83 81 79 78 79 80 80 79
61 64 68 66 65 62 59 59 61 64 71 73 72 70 72 73 76 79 77 76 76 77 77 79 78 76 76 77 80 80 80 78 78 80 80 80 80 81 81 80 79 78 78 78 78 78 78 79 79 80 80 81 82 84 82 81 80 79 79 79 81 83 82
65 68 70 70 67 61 60 61 61 61 66 70 72 73 73 72 72 74 74 75 74 74 75 77 78 78 77 78 78 77 77 79 78 78 79 81 81 82 82 80 78 78 78 78 77 76 77 78 78 79 80 81 80 81 80 80 80 80 79 79 80 82 83
66 68 71 70 67 65 66 65 64 62 62 63 66 69 70 72 73 74 72 71 73 75 75 75 76 77 77 78 77 75 75 77 77 77 76 76 78 79 81 80 77 76 76 76 77 77 77 77 78 79 79 79 80 81 80 80 81 80 79 80 83 83 82

ECMWFFLT2_sfc_temp_027.txt.gz
Temp
92 92 94 94 97 76 86 87 79 84 95 89 79 80 84 82 76 71 83 82 87 95 95 98 97 97 99 100 101 101 100 103 102 99 101 101 99 100 99 99 98 96 97 96 96 95 95 95 94 93 92 92 91 91 91 89 89 90 89 89 89 90 90
93 97 95 95 97 97 91 80 86 96 99 94 82 71 74 73 69 72 82 77 81 81 75 93 93 94 96 96 98 103 101 103 102 100 100 100 99 100 100 99 97 97 97 96 97 98 97 96 95 93 92 93 92 92 92 90 89 89 90 90 90 90 89
92 96 95 90 95 98 90 89 100 85 74 72 81 78 66 66 65 69 76 81 82 83 80 90 88 91 92 93 95 98 101 101 101 101 100 99 100 99 100 99 98 97 97 96 95 98 99 97 94 94 94 94 94 94 93 93 90 91 91 93 91 91 91
93 92 89 75 83 93 96 98 93 96 88 80 74 77 78 75 67 68 70 77 73 85 87 92 89 92 93 93 95 98 101 101 102 102 101 100 99 99 100 100 99 98 99 99 99 99 99 97 96 96 97 97 97 95 93 93 93 92 92 91 91 90 91
91 78 84 80 84 80 83 85 84 89 87 93 90 87 79 74 70 69 68 66 74 86 96 95 91 93 95 96 95 96 99 99 103 104 103 100 99 98 99 99 99 99 99 100 100 100 101 100 98 98 98 97 98 97 96 95 92 93 93 93 92 91 91
79 82 91 90 90 89 87 85 82 85 83 79 72 69 87 84 75 65 69 67 78 92 100 96 99 97 97 98 98 98 101 104 102 103 105 102 100 99 100 102 103 102 99 100 101 100 100 101 99 99 99 99 99 98 98 97 98 96 96 93 92 91 91
82 86 93 95 95 94 93 90 85 89 88 86 78 64 74 83 82 84 79 73 77 94 99 98 99 98 99 100 101 100 102 102 105 105 108 105 101 100 102 102 104 103 100 100 99 97 98 98 96 98 99 99 99 99 99 98 97 97 99 97 95 91 91
90 92 94 95 95 93 89 91 92 90 84 87 84 81 82 77 80 76 75 69 79 94 97 98 100 98 101 101 102 99 101 103 103 104 106 102 100 99 101 102 103 102 101 99 96 96 95 95 95 96 98 98 99 100 100 100 99 98 98 98 97 93 91
74 81 86 87 93 91 86 85 89 91 90 90 90 88 87 76 78 80 73 66 78 90 96 97 98 100 100 100 103 102 100 102 104 104 104 102 100 98 99 99 100 100 100 97 94 94 93 94 96 95 96 97 99 98 100 101 100 100 99 98 97 95 93
59 60 62 67 74 80 85 88 89 90 89 88 85 76 77 68 75 76 74 75 84 91 93 95 97 98 96 98 100 103 103 100 102 102 103 98 98 94 96 96 98 98 96 95 94 93 92 94 96 94 94 97 98 98 99 102 101 100 99 100 99 96 95
70 73 76 86 86 85 79 83 85 87 90 91 87 82 76 72 75 74 76 79 81 85 91 91 96 96 95 96 97 98 100 102 102 101 98 98 95 94 96 95 96 95 94 94 93 93 94 96 95 95 96 96 97 95 97 101 101 100 98 98 96 96 95
78 84 83 88 86 82 85 83 84 87 87 87 84 79 75 80 77 69 77 80 80 82 88 92 93 95 95 95 95 99 100 102 103 102 94 93 95 95 94 94 94 93 93 93 92 92 93 94 94 95 95 96 96 95 96 99 101 101 100 97 96 95 94
81 84 85 88 86 87 89 87 85 84 86 86 82 80 85 82 76 72 79 81 79 84 90 94 94 95 95 98 98 100 102 102 101 99 99 97 96 94 94 92 92 92 92 91 91 91 92 93 93 93 94 94 94 95 96 96 101 100 98 96 95 95 93
81 82 83 85 85 85 84 85 86 86 86 85 85 86 87 86 79 83 84 82 83 89 91 95 97 98 99 100 100 101 101 102 99 101 99 100 100 97 94 93 93 92 92 91 90 90 90 91 91 93 92 92 94 94 95 97 97 99 96 94 93 93 92
77 83 84 84 84 83 82 84 86 88 89 87 86 86 86 86 85 87 86 81 81 91 94 95 98 97 99 100 100 100 99 100 102 101 102 102 101 102 98 93 94 93 92 91 90 90 90 90 91 91 91 92 93 97 95 96 95 97 97 92 92 91 91
71 79 81 82 83 83 81 82 84 84 84 82 86 82 87 83 79 81 83 78 81 89 95 97 96 95 95 94 96 98 98 102 100 99 101 101 100 101 101 97 93 92 92 91 90 90 91 92 91 91 91 92 93 94 94 94 97 98 95 93 91 90 91
67 76 80 79 81 77 73 75 81 84 86 89 89 90 89 88 88 81 76 78 87 90 92 92 92 95 94 95 97 97 98 97 100 99 99 101 101 101 97 95 93 94 95 94 91 92 92 92 92 93 93 94 91 93 92 93 94 94 92 92 90 90 90
68 76 78 80 73 61 63 81 88 87 84 85 85 86 88 90 91 86 89 88 90 92 92 91 90 92 92 94 95 99 96 95 97 100 100 102 103 104 103 99 98 95 95 95 94 93 92 93 95 94 93 93 93 94 93 93 92 92 91 90 89 89 89
67 73 75 65 60 62 80 89 91 91 90 89 86 86 91 93 93 92 91 92 90 92 93 93 93 94 96 99 98 100 102 99 99 98 101 100 100 101 101 98 101 96 95 94 94 92 93 95 94 94 94 95 94 93 92 91 91 90 90 90 89 89 89
73 69 67 55 59 77 85 88 89 92 91 90 86 84 88 92 93 92 90 92 94 93 93 95 96 95 98 99 97 98 102 103 101 103 103 103 103 103 103 99 97 95 96 95 95 93 94 95 96 95 94 96 95 92 92 91 91 90 90 89 89 89 88
63 65 66 66 74 76 80 80 82 84 79 81 77 69 75 85 90 93 90 91 93 95 96 96 97 98 99 94 95 103 103 101 104 106 105 106 104 105 102 103 100 96 96 95 96 93 94 95 95 95 96 96 94 92 91 91 89 89 89 88 88 88 88
70 64 64 64 64 59 69 75 81 86 86 85 85 76 75 86 90 90 90 90 91 93 96 96 96 96 90 86 89 98 104 106 104 106 107 108 107 108 106 101 100 95 96 96 95 94 94 94 94 93 95 94 91 89 89 89 89 88 89 88 89 88 89
68 65 61 61 56 62 71 72 79 82 86 86 84 76 69 83 87 91 90 89 91 93 93 93 94 89 83 84 89 98 104 105 106 105 104 106 108 107 104 101 98 96 94 94 94 93 93 92 92 93 93 92 90 89 88 88 89 89 88 89 89 89 89
65 65 61 60 68 66 70 79 81 85 86 85 78 61 65 76 81 85 84 85 85 85 87 93 91 87 83 86 92 103 104 105 105 103 102 102 104 104 102 101 98 94 93 92 91 92 92 91 92 92 93 92 89 88 88 91 90 89 89 89 90 90 90
64 61 64 67 69 76 81 82 84 86 86 81 63 57 71 77 82 84 85 85 88 87 86 87 86 91 93 95 99 103 104 104 106 107 103 101 103 102 102 99 92 93 92 92 91 91 91 91 92 92 91 90 88 88 88 89 88 89 90 90 89 89 88
65 66 63 64 70 77 82 83 86 87 78 60 60 74 77 81 81 85 85 85 85 88 87 87 89 94 101 101 103 100 98 98 97 98 100 101 101 101 97 90 90 92 93 90 91 92 91 92 92 92 90 88 87 87 88 88 89 90 89 88 88 87 87
70 68 64 61 52 70 82 84 83 82 70 71 76 78 82 85 84 85 84 84 86 86 86 90 90 93 98 103 101 97 96 94 93 94 95 94 95 93 90 90 92 93 90 89 89 89 93 94 92 92 90 86 86 87 86 86 88 87 87 87 86 86 85
64 63 60 59 73 76 84 80 72 76 78 79 79 79 79 84 85 84 82 84 84 86 85 88 90 93 94 93 93 91 91 92 93 93 92 91 90 90 94 94 92 92 87 88 89 92 93 91 91 90 88 86 85 84 83 85 86 85 85 85 84 83 83
71 67 71 72 77 80 84 82 79 80 81 82 82 82 82 81 82 83 83 81 84 86 86 85 89 91 91 88 89 89 89 90 89 88 88 88 89 91 91 92 90 90 91 89 90 88 89 88 88 88 87 84 82 81 83 84 84 84 83 82 81 81 82
75 74 75 78 79 80 81 85 84 84 84 86 85 83 81 82 84 85 82 81 82 84 86 84 88 88 88 85 83 85 88 89 88 88 89 89 90 91 89 88 88 88 89 88 86 85 85 86 86 85 86 84 80 80 83 83 83 83 82 81 80 80 82
65 55 70 73 75 78 79 80 83 85 87 86 85 82 82 83 84 86 84 82 83 84 84 83 84 86 88 87 86 85 84 86 86 87 87 87 87 87 86 87 87 88 87 86 85 85 85 86 87 87 86 84 82 82 82 84 84 82 81 80 79 80 80
63 62 68 71 75 74 77 77 77 79 81 83 85 84 84 83 85 84 82 82 80 84 80 77 78 77 78 80 80 82 82 83 83 83 83 84 85 87 88 87 87 87 86 86 85 85 84 85 86 86 85 84 83 83 86 87 85 82 79 79 79 80 80
63 63 71 73 72 71 72 74 76 79 80 79 79 80 80 82 82 82 83 84 80 80 78 81 81 80 78 79 79 81 82 81 81 82 82 83 83 84 85 85 84 83 83 83 82 83 83 85 85 85 85 87 88 86 85 84 82 81 80 80 82 82 82
58 61 66 72 65 62 67 69 72 75 77 77 76 77 77 77 77 79 81 81 82 83 83 82 81 79 79 81 82 80 81 81 82 83 84 84 85 85 85 85 84 83 83 83 82 83 84 86 86 86 86 87 88 90 87 86 84 81 81 82 82 83 83
52 60 67 67 68 68 68 69 70 72 76 76 74 72 72 72 74 76 76 78 78 79 80 82 81 79 78 79 81 82 82 80 82 83 83 83 84 85 85 84 83 82 82 82 82 82 83 84 85 86 86 87 87 88 86 85 84 82 82 81 83 84 83
67 67 66 71 71 66 67 69 68 68 71 74 71 70 70 72 72 74 74 75 75 76 78 79 80 79 80 80 80 79 80 81 81 82 83 85 84 85 85 83 81 81 81 81 81 81 83 83 84 84 85 85 84 85 84 84 84 83 84 83 83 84 86
61 69 71 71 69 70 71 70 69 68 67 68 68 66 66 67 73 74 72 74 75 75 74 75 77 77 77 79 79 78 78 79 80 81 80 79 81 81 82 82 80 79 80 81 82 82 82 82 82 83 82 82 83 84 84 85 84 83 83 84 86 86 83

ECMWFFLT2_sfc_temp_030.txt.gz
Temp
93 92 94 92 94 73 85 87 78 82 93 88 77 76 83 82 74 69 81 80 86 93 93 96 97 97 96 97 97 99 96 97 96 96 95 96 96 96 96 96 95 92 93 93 94 94 94 93 92 91 89 89 88 88 87 86 86 87 86 86 86 86 86
93 98 96 95 94 93 89 80 85 94 97 93 79 69 73 72 66 70 80 76 77 79 73 91 93 93 95 95 96 99 96 96 96 96 94 94 96 96 96 95 93 94 94 94 95 96 96 94 93 91 88 90 89 89 89 87 86 86 86 87 87 87 86
93 97 94 90 94 96 87 86 98 82 72 71 78 74 64 64 63 66 74 78 78 80 79 88 87 89 91 92 94 96 95 96 97 95 94 94 97 97 95 96 94 94 94 95 94 96 98 95 91 91 91 91 91 90 90 90 87 88 88 89 88 87 87
93 92 88 74 82 91 94 95 90 96 87 79 72 75 76 72 65 65 68 75 71 84 85 91 90 91 92 93 93 94 97 97 97 97 93 95 95 95 96 96 96 96 97 98 99 97 97 95 93 93 94 94 94 93 90 90 90 88 88 88 87 87 88
92 79 84 79 83 79 82 83 81 86 86 90 86 84 78 71 66 66 67 66 73 84 94 94 92 92 94 95 92 92 96 99 101 100 99 95 96 95 96 97 97 97 97 99 100 99 98 98 95 95 95 94 94 94 92 92 89 89 89 89 89 87 88
80 83 90 89 88 88 84 82 79 83 81 76 69 67 85 81 72 62 66 64 77 90 98 94 95 95 96 96 95 95 97 99 97 99 100 95 96 95 96 99 100 100 97 97 99 98 97 98 97 95 95 95 95 94 94 93 92 91 91 89 88 87 88
83 88 93 95 94 93 90 88 83 87 86 84 76 62 71 81 79 81 77 71 74 91 94 94 96 97 101 99 99 97 98 98 100 100 103 97 96 96 98 99 100 100 96 95 94 94 95 95 94 95 94 95 94 94 94 93 92 91 92 91 91 88 88
88 92 95 96 94 92 87 89 90 87 82 84 81 79 80 75 77 72 73 68 76 93 92 95 99 96 101 99 100 97 100 100 99 99 100 94 93 94 98 98 99 96 96 93 91 92 92 92 92 93 93 93 94 94 95 95 93 92 93 93 92 89 88
73 78 85 87 92 90 84 83 87 89 88 88 87 87 85 74 76 78 73 64 74 88 93 93 95 99 99 99 101 99 97 98 99 100 95 94 92 93 96 95 95 95 95 92 89 91 90 90 93 92 92 93 94 93 95 95 94 94 93 93 92 91 90
58 58 61 69 73 79 85 86 86 88 87 85 81 74 75 67 74 75 73 72 80 90 90 92 94 95 93 99 101 102 100 97 100 99 94 92 92 91 93 93 93 93 90 90 90 90 90 92 93 91 91 93 94 94 94 96 95 94 94 95 94 91 91
69 72 75 86 86 83 78 82 83 85 88 89 86 81 75 70 73 73 74 76 79 84 89 88 92 94 94 93 95 95 95 97 97 95 93 93 91 91 94 92 93 91 90 90 90 90 92 94 94 93 93 93 94 92 93 96 96 95 93 93 92 91 91
77 83 81 86 87 82 83 83 82 85 85 86 83 77 74 78 74 67 76 78 79 81 87 89 89 94 93 94 94 96 95 94 97 97 93 91 94 94 93 93 92 91 91 91 90 90 92 93 93 93 94 95 93 92 93 95 97 97 97 93 92 91 90
82 84 85 87 87 86 85 85 85 83 84 84 81 79 84 80 74 70 76 78 77 83 89 92 91 91 92 96 97 98 99 99 97 94 94 93 94 93 93 90 90 91 91 90 90 91 91 93 93 93 93 93 93 92 94 93 98 96 94 92 91 91 89
81 82 83 85 84 85 85 85 85 86 86 84 84 84 86 85 77 81 83 79 81 88 90 93 95 95 97 97 97 96 95 98 94 94 92 98 95 94 93 91 92 91 91 90 90 90 90 91 91 93 92 91 93 93 93 95 94 95 93 91 90 90 88
77 82 83 84 83 82 80 85 88 87 86 86 86 86 85 85 84 86 86 80 78 89 92 93 95 95 97 96 96 97 95 97 99 97 96 97 97 95 93 91 92 91 91 91 90 89 89 90 90 91 91 91 92 97 94 96 93 95 94 90 89 89 88
72 79 83 83 82 82 80 79 82 83 82 80 86 82 86 82 78 81 83 77 78 88 93 95 95 94 92 92 92 93 93 99 96 95 97 96 94 94 93 92 91 90 91 90 89 90 91 91 91 91 90 91 92 93 93 93 97 98 94 91 90 88 89
68 78 81 81 80 77 72 74 80 83 85 86 88 89 88 86 87 80 76 79 87 88 91 91 92 95 94 93 94 93 94 91 96 96 96 98 97 93 91 90 90 92 93 92 90 91 92 92 91 92 92 92 90 91 91 92 93 94 91 91 90 89 89
68 75 78 79 71 61 64 82 88 86 83 84 83 82 85 90 89 84 87 87 88 90 91 90 89 91 91 92 92 95 92 91 92 96 97 100 101 100 96 94 93 92 92 92 92 91 90 91 94 93 92 92 91 92 91 91 91 90 90 89 89 89 88
67 73 74 66 58 61 78 87 90 91 90 88 86 87 89 90 90 90 88 89 88 89 92 92 90 91 93 96 97 99 101 96 95 93 96 95 97 97 97 92 95 91 91 91 91 90 92 94 93 92 92 93 92 92 91 90 90 89 89 88 88 88 88
73 68 66 54 57 75 83 86 89 91 90 89 86 83 87 90 91 89 84 80 86 88 91 94 93 92 96 97 95 95 99 100 98 99 99 100 101 100 99 94 91 90 93 92 93 91 93 94 95 94 93 95 94 91 91 90 90 89 88 88 87 88 87
63 66 65 64 74 74 78 79 81 85 79 82 80 72 79 88 90 90 84 84 88 85 86 92 94 94 96 91 91 100 101 99 101 103 102 104 102 102 99 101 97 92 94 93 95 91 92 94 94 94 95 95 93 91 90 90 89 88 88 87 87 87 87
72 64 61 63 63 59 67 78 86 88 87 86 83 75 73 84 87 88 84 82 84 85 89 87 84 85 85 84 87 95 101 102 102 103 104 105 103 103 103 99 100 94 94 95 94 93 93 92 92 92 93 92 90 89 88 88 88 87 87 87 87 87 87
69 65 59 60 57 64 75 77 83 85 87 89 86 77 69 81 85 85 86 84 85 86 84 84 85 82 76 79 86 95 100 103 105 103 103 104 105 104 103 102 102 98 94 94 94 92 92 90 91 91 91 91 90 88 87 88 88 88 87 87 87 87 87
67 64 61 59 66 65 75 80 84 87 89 87 81 63 66 75 83 85 85 83 85 84 83 85 84 81 78 80 85 97 102 104 103 99 98 99 101 102 102 104 103 94 92 91 91 91 91 90 91 91 91 91 89 87 87 89 88 87 87 87 88 88 89
63 60 63 66 68 77 79 82 87 88 89 83 65 56 70 78 82 84 84 85 85 84 83 84 80 83 85 87 91 98 98 101 102 100 99 98 100 101 104 101 88 92 92 91 91 91 90 90 92 91 91 90 87 87 87 87 86 88 88 88 88 88 88
62 63 61 62 68 77 81 85 87 88 78 63 63 74 79 81 82 84 86 84 85 85 84 83 84 86 90 92 95 94 97 94 93 96 99 98 97 103 100 89 90 92 94 90 91 91 90 92 92 92 90 87 86 86 86 86 87 89 88 88 87 87 86
68 65 60 58 50 73 86 85 82 84 70 71 76 78 83 85 83 82 82 83 83 83 82 84 85 87 89 90 90 92 92 93 91 94 95 93 91 90 90 91 92 93 90 88 90 91 94 95 93 91 90 86 85 85 85 86 88 88 88 87 86 86 85
61 60 58 58 71 78 89 82 69 74 76 79 80 79 80 82 82 80 80 80 81 83 82 82 84 85 87 87 89 91 91 90 89 88 89 90 90 92 95 94 93 94 88 89 91 93 94 92 91 90 88 85 84 85 85 87 87 86 86 86 85 83 83
68 65 69 76 78 82 84 81 78 80 82 82 82 82 80 79 79 81 79 78 81 82 80 80 82 83 85 85 89 86 88 87 89 90 89 89 91 92 92 93 91 91 91 89 90 90 90 89 89 88 87 85 84 83 84 85 84 84 84 83 82 82 82
72 75 75 77 78 79 82 85 86 85 83 84 83 81 79 80 82 81 78 79 78 78 77 76 75 76 77 78 78 79 82 84 85 84 88 89 90 93 91 90 90 90 91 90 90 88 88 88 86 86 86 85 81 81 84 83 84 83 83 81 81 80 81
64 50 66 70 68 75 79 82 85 87 86 83 82 80 80 80 80 80 80 79 77 76 75 74 73 72 72 72 73 72 72 72 70 70 72 82 90 88 87 88 86 88 88 89 88 87 85 85 84 85 85 85 83 83 82 84 83 82 81 80 79 79 79
58 54 62 68 71 69 74 78 73 77 80 82 83 82 82 81 81 81 81 80 77 76 73 72 71 71 71 70 70 70 69 68 69 69 67 64 67 81 88 87 87 87 87 85 82 80 79 80 82 83 84 84 84 84 85 85 83 81 79 79 79 79 79
60 59 59 67 70 71 73 75 77 77 77 76 76 78 79 81 79 78 79 79 77 75 72 72 71 70 69 69 69 68 68 67 66 67 67 67 66 65 69 74 78 82 82 80 79 81 81 81 81 82 83 86 87 85 84 83 81 80 78 78 79 80 79
56 55 57 64 58 56 64 69 73 74 77 77 75 75 75 75 75 76 76 76 77 77 76 74 72 70 69 69 69 67 67 67 67 67 67 68 67 68 68 69 72 74 74 77 80 80 81 83 84 84 84 85 85 86 84 83 81 79 78 78 79 79 79
56 61 62 65 65 62 63 65 69 74 76 76 74 73 73 74 75 75 74 73 73 74 74 74 73 70 70 68 67 67 67 68 66 67 68 68 67 67 68 68 68 72 78 80 81 81 82 82 83 84 83 84 83 84 83 82 81 79 79 78 79 81 81
60 63 64 65 63 61 63 67 67 68 72 73 73 74 75 74 74 74 73 73 71 71 72 72 72 70 72 74 72 68 66 67 68 67 66 70 69 68 69 69 70 75 78 80 81 81 82 83 83 83 83 84 82 83 82 82 82 81 81 80 80 81 82
58 63 66 67 65 66 68 68 68 68 69 69 69 70 72 73 74 73 71 71 72 72 70 69 71 71 70 72 73 71 70 69 68 71 74 73 74 75 76 79 79 79 79 80 80 81 82 82 82 82 82 82 82 83 83 83 84 82 81 82 83 83 80

ECMWFFLT2_sfc_temp_033.txt.gz
Temp
84 84 88 86 87 65 73 77 70 75 80 76 64 65 70 69 63 58 69 69 72 78 82 89 89 84 86 88 89 89 85 88 88 87 89 90 90 90 89 87 87 86 87 87 88 88 87 87 86 86 85 85 84 83 83 82 82 82 82 82 82 82 82
86 89 89 89 88 86 75 70 75 83 84 81 67 55 60 58 51 57 70 62 62 65 57 81 84 79 83 85 86 88 86 87 86 87 88 88 89 89 89 88 87 87 87 87 88 89 89 88 87 86 85 86 85 85 84 82 82 81 82 82 82 82 81
85 90 87 84 88 90 80 73 86 74 60 64 64 65 51 51 52 54 61 68 66 65 64 77 79 78 79 83 85 86 84 87 88 87 88 88 90 90 88 88 87 87 87 87 87 89 90 89 87 87 86 86 86 85 85 85 83 83 83 84 83 83 83
85 85 82 68 75 84 88 87 80 82 73 65 63 64 63 58 50 53 57 63 55 70 68 78 81 82 80 83 84 85 86 88 89 88 88 88 88 88 89 89 89 89 90 89 89 90 90 88 87 87 88 88 87 86 85 84 85 84 83 83 83 82 83
84 71 77 72 74 71 74 75 73 75 74 77 73 72 68 56 53 52 50 51 61 67 74 79 77 81 84 84 84 85 87 89 91 89 89 89 89 89 89 90 90 89 90 91 90 91 91 90 88 89 89 88 88 88 86 85 84 84 83 84 83 83 83
72 75 82 83 81 80 77 75 72 73 68 63 58 55 74 71 61 49 53 53 60 72 92 81 78 80 87 86 85 85 87 90 90 89 90 90 89 90 90 91 92 91 89 90 91 91 91 89 89 89 89 89 88 88 87 86 86 85 84 84 83 83 83
71 80 86 88 88 86 83 80 75 78 73 69 60 46 55 68 68 73 64 56 57 75 79 84 87 81 86 87 85 85 87 90 90 89 91 91 91 90 92 92 92 91 90 90 90 89 89 89 88 88 88 89 88 88 88 87 86 85 86 85 85 84 83
78 84 87 87 88 86 81 81 82 78 72 74 69 62 61 60 63 61 59 55 61 78 81 80 85 82 83 90 91 88 91 92 90 89 90 88 88 89 91 92 92 90 90 89 87 87 87 87 87 87 88 88 89 89 89 88 87 86 86 86 86 84 83
58 68 73 77 84 84 78 75 78 80 80 78 77 75 68 63 66 66 57 52 57 75 85 83 83 83 85 84 86 89 88 88 91 88 86 89 87 86 88 89 89 88 89 87 86 87 87 87 87 87 87 88 88 88 89 89 88 88 87 87 86 85 84
49 49 53 54 64 72 77 79 79 80 79 77 72 65 64 50 55 63 58 56 60 69 83 87 87 85 80 80 87 88 87 83 88 88 82 88 87 86 88 88 87 87 87 87 85 85 85 87 87 86 86 87 88 88 89 90 89 88 88 88 87 85 85
58 62 60 73 75 74 71 75 78 78 80 81 76 67 60 53 52 60 55 61 62 68 77 82 86 85 84 83 80 83 84 83 86 80 82 86 84 83 87 86 86 86 84 84 84 84 85 87 87 86 87 87 88 87 88 90 90 89 87 87 86 86 85
67 71 72 78 78 74 76 75 76 79 78 78 75 67 64 65 61 48 56 62 66 67 70 74 80 83 81 77 77 85 81 80 83 82 80 85 86 87 88 87 85 83 83 83 82 82 83 85 86 86 87 88 87 87 87 89 90 89 89 87 86 85 85
74 77 77 79 79 78 78 79 78 76 78 77 73 70 73 65 62 61 61 62 64 65 74 75 76 78 79 78 79 82 82 83 82 79 82 84 86 86 86 83 82 81 81 81 81 82 84 85 85 86 86 87 87 87 88 88 90 89 88 87 86 85 84
74 75 77 78 76 77 78 78 79 79 78 77 77 75 76 74 62 65 68 63 68 71 75 83 80 78 83 83 82 83 83 87 81 84 81 85 86 86 86 85 84 83 83 82 81 82 83 84 85 86 86 86 87 87 87 89 89 89 88 86 85 85 84
71 75 78 78 77 76 74 77 78 79 79 78 78 79 78 75 72 74 72 66 65 71 77 84 86 78 79 82 87 86 83 83 84 85 87 86 86 85 84 83 83 83 83 83 82 82 83 84 86 86 86 87 87 88 88 88 88 89 89 86 85 85 84
62 72 75 76 76 76 74 73 75 76 77 74 76 74 78 73 67 66 69 64 64 67 75 79 83 78 78 78 76 81 80 83 81 84 86 84 85 86 86 86 86 84 85 84 83 83 85 86 86 87 86 87 87 87 87 88 90 90 88 87 85 84 84
57 69 73 75 75 72 67 69 74 75 75 74 76 79 80 80 79 72 62 59 66 72 76 79 76 82 82 76 77 75 77 79 84 81 84 86 86 86 85 85 85 87 87 86 85 86 87 87 87 88 88 87 86 87 87 88 89 89 87 87 86 85 85
56 68 71 72 65 56 59 74 80 79 76 75 73 73 75 78 80 75 72 69 70 73 74 74 72 77 84 83 78 77 81 76 78 83 82 84 86 88 89 88 87 86 86 86 86 87 87 88 89 89 88 88 88 89 88 88 88 88 86 86 85 85 84
55 62 64 56 50 54 70 80 83 83 83 81 77 77 78 79 77 78 75 76 74 74 75 75 73 72 76 79 82 87 81 79 79 80 81 80 81 85 85 85 87 86 86 86 86 85 87 88 89 88 88 89 88 87 87 86 87 87 86 85 85 85 84
62 58 54 48 51 64 74 77 79 80 79 79 77 74 78 78 77 74 68 71 72 71 73 75 76 77 77 79 78 77 83 83 81 81 81 82 82 83 86 86 86 86 87 86 86 86 87 87 88 88 88 89 88 87 87 87 87 87 86 85 84 85 84
54 54 53 56 63 65 69 71 74 75 68 70 68 59 64 74 75 74 70 72 73 74 75 76 77 76 78 74 73 82 83 83 86 85 84 87 85 85 84 89 87 85 87 87 88 87 87 87 87 88 89 89 88 86 86 86 86 86 85 84 84 84 84
62 51 51 53 53 51 57 68 78 82 80 78 74 66 64 71 75 75 73 72 72 73 74 73 73 75 71 66 70 79 86 88 85 88 90 92 89 89 86 86 88 85 84 86 87 87 87 86 88 87 88 88 86 85 85 85 85 85 84 84 84 84 84
60 57 50 51 50 54 63 68 77 78 78 83 76 63 57 68 72 75 76 74 74 73 73 73 72 69 64 65 69 78 84 86 89 86 88 92 94 91 90 85 87 87 87 88 88 87 86 86 87 87 87 87 86 84 84 85 85 85 84 84 84 84 85
56 55 53 52 58 56 66 74 77 78 80 82 71 55 53 64 72 75 75 74 74 73 73 73 71 67 62 64 72 82 85 86 85 82 82 84 84 85 86 88 88 86 87 85 87 86 86 86 87 86 87 86 85 84 84 85 85 85 85 85 85 86 86
55 55 54 57 60 66 75 76 79 81 83 74 56 46 57 68 72 73 75 74 74 73 71 72 68 69 73 75 78 84 84 84 84 84 83 83 85 83 85 85 84 83 83 87 87 87 87 87 87 87 86 86 84 84 84 84 84 86 86 86 85 85 85
54 53 52 52 58 67 75 75 81 81 74 54 50 64 70 72 72 74 75 74 74 74 72 70 70 73 78 79 80 79 78 78 78 79 81 81 82 84 81 79 80 82 87 84 86 87 87 87 87 87 86 84 83 83 83 83 85 87 85 85 85 84 84
61 57 53 44 40 62 77 78 75 75 63 59 66 69 73 75 73 73 72 72 72 73 71 73 72 73 75 75 74 74 74 74 73 73 73 74 77 80 80 81 84 86 81 80 84 86 88 89 88 87 86 83 83 82 82 83 85 85 84 84 84 83 83
48 52 49 48 58 68 80 75 59 64 68 69 70 72 69 73 73 71 69 70 71 72 70 70 70 70 70 71 70 71 71 72 71 71 71 72 73 74 78 78 77 81 82 81 83 86 88 87 86 86 85 82 81 81 82 83 84 84 84 84 83 82 81
50 47 51 59 65 70 74 72 71 73 75 75 75 74 72 70 70 71 69 68 70 70 70 68 68 67 68 68 70 68 68 69 69 68 69 69 69 70 70 70 69 70 70 70 73 78 85 85 85 85 84 82 79 80 81 82 82 83 83 82 81 80 80
59 61 60 61 62 70 74 78 77 78 78 78 76 74 70 70 70 70 67 68 68 69 69 66 65 66 66 67 67 67 67 67 68 68 68 67 68 68 68 69 71 70 71 71 71 72 76 80 80 80 81 82 80 80 81 82 82 82 81 80 79 79 79
51 44 59 58 60 68 70 70 72 76 78 75 75 71 71 70 71 70 70 69 68 68 68 66 65 66 67 66 66 66 66 65 65 66 65 65 66 66 65 66 68 69 70 69 67 68 71 76 81 82 81 80 80 80 80 81 81 80 79 78 77 76 76
51 51 57 59 62 65 68 69 68 69 72 74 73 72 72 71 71 71 70 71 69 70 68 67 65 65 66 65 65 65 65 65 65 65 65 65 65 66 66 66 68 69 67 67 68 68 68 69 70 70 71 72 74 77 80 81 80 78 76 76 76 76 75
54 59 58 59 60 64 65 68 70 69 69 70 71 72 72 71 70 69 69 70 68 68 67 68 67 65 65 65 65 65 65 65 65 64 64 64 65 66 66 66 67 66 67 67 67 68 68 69 69 70 70 70 72 73 75 78 78 76 74 73 74 75 74
49 50 54 57 51 52 57 61 65 69 70 70 69 70 69 69 68 68 67 67 68 68 68 67 67 65 65 65 65 65 65 64 65 65 64 64 64 65 66 67 66 68 68 67 67 67 67 69 69 70 71 71 71 71 71 72 73 72 72 73 73 73 73
49 56 58 59 58 56 57 60 62 66 70 69 67 66 66 68 69 69 67 66 65 66 66 67 66 64 64 64 65 64 64 64 65 66 66 64 64 64 65 65 65 65 66 68 68 68 68 69 70 71 70 72 71 71 71 72 73 72 72 72 72 74 73
57 60 59 60 58 56 58 62 63 63 66 68 67 68 68 67 67 67 66 66 64 64 65 65 66 65 65 65 65 63 63 64 65 65 66 66 66 66 66 66 66 66 67 66 66 66 66 68 69 71 70 71 71 72 72 72 73 73 75 74 74 74 74
55 60 61 60 60 60 61 63 64 64 65 65 64 65 66 67 68 67 65 64 65 65 63 63 64 65 66 66 65 64 64 65 65 66 66 65 66 66 67 67 67 66 66 68 68 68 68 69 71 72 72 73 74 75 75 75 76 75 75 76 75 74 73

ECMWFFLT2_sfc_temp_036.txt.gz
Temp
79 78 81 79 80 60 65 71 65 68 68 71 58 55 61 61 56 53 50 62 59 63 72 74 78 80 82 83 83 84 83 84 84 83 84 86 86 86 86 86 86 85 86 85 86 86 86 85 84 84 83 83 82 81 80 80 80 80 80 80 80 80 80
79 84 81 82 83 72 65 67 64 73 75 71 64 49 54 56 47 49 62 59 55 62 54 66 73 75 78 78 79 82 82 83 82 84 85 86 86 86 86 86 86 87 87 86 86 87 87 86 85 84 83 84 83 82 82 80 80 79 80 80 80 80 80
79 83 81 77 81 83 76 67 74 71 55 58 56 53 51 48 49 47 52 57 55 58 57 65 71 72 74 78 78 80 80 81 83 84 86 86 87 87 86 86 86 86 86 86 86 87 88 87 85 85 85 84 83 83 83 82 81 81 81 81 81 81 81
78 78 75 64 69 77 81 76 72 73 64 64 55 58 49 53 42 50 49 54 52 59 60 64 74 77 74 77 79 80 81 82 84 85 86 86 85 85 86 87 87 86 87 88 87 87 87 86 85 85 85 85 84 84 82 82 82 82 81 81 81 80 81
74 66 69 69 71 68 69 70 69 69 68 66 69 63 63 52 43 40 43 50 51 56 63 72 73 76 74 78 78 81 83 84 86 86 87 87 86 86 86 87 87 87 87 88 88 88 88 87 86 86 86 85 85 85 83 83 81 81 81 81 81 81 81
62 67 73 76 76 76 73 71 68 70 62 58 55 49 60 59 54 43 46 50 44 57 73 72 76 79 76 78 81 82 84 85 85 87 88 88 87 87 88 88 89 88 87 87 88 88 87 87 86 86 86 86 85 84 84 83 83 82 82 81 81 81 81
66 70 76 80 82 81 79 76 72 72 63 59 52 47 43 61 60 65 50 48 56 62 66 71 76 75 76 79 81 83 84 86 87 88 89 88 88 88 89 90 90 89 87 87 87 86 85 85 85 85 85 85 85 85 84 84 83 82 83 82 82 81 81
72 74 75 76 80 81 76 77 78 74 67 66 61 52 46 55 52 56 54 53 51 61 73 80 76 71 74 78 82 81 84 86 87 87 88 87 86 87 90 91 91 90 88 86 85 84 84 83 83 84 84 85 85 85 85 84 83 83 83 83 83 82 81
56 66 67 67 73 77 73 72 75 77 76 72 65 66 54 58 53 58 52 52 53 58 71 80 77 75 76 75 77 81 81 79 85 86 86 87 86 87 88 88 88 87 85 82 81 83 83 83 83 83 84 84 85 85 85 85 84 84 84 84 83 82 81
46 46 50 54 60 67 73 73 74 76 75 71 63 62 56 48 48 53 50 52 47 57 65 80 86 85 79 75 74 81 83 84 86 85 86 85 85 85 86 86 85 83 83 82 81 82 82 83 83 83 83 84 85 85 85 86 85 84 84 84 83 82 82
56 58 54 58 60 68 67 69 72 73 76 76 72 60 53 56 44 55 46 54 54 63 70 71 78 81 80 80 76 73 77 80 82 83 84 85 84 84 84 83 83 81 80 81 82 82 83 84 84 84 84 84 85 84 84 86 86 85 84 84 83 82 82
66 68 67 69 71 68 71 69 69 73 74 73 69 62 61 52 54 53 52 46 62 59 62 67 73 81 80 72 70 72 72 76 81 80 77 83 83 83 83 82 81 79 80 80 81 81 83 83 84 84 84 85 84 84 84 86 86 85 85 84 83 82 81
70 71 73 73 70 70 71 73 71 70 73 72 69 65 62 61 59 58 56 52 59 59 62 68 69 73 70 74 77 78 81 82 82 82 84 83 83 81 81 81 80 80 80 80 81 82 82 83 83 83 83 84 84 84 85 85 86 85 85 83 82 82 81
69 70 71 75 72 70 69 71 72 72 72 72 73 71 68 66 59 61 60 56 63 65 68 70 72 69 71 75 71 73 78 78 75 79 80 84 84 83 83 82 82 82 82 81 81 81 81 82 82 83 83 83 84 84 84 85 85 86 85 83 82 82 81
66 70 72 73 73 70 68 68 71 73 73 73 74 74 71 68 66 62 63 60 60 64 66 74 75 71 67 75 79 76 74 76 76 78 79 80 82 82 83 82 82 82 82 81 80 80 80 81 82 83 82 83 84 85 84 85 85 86 85 83 82 82 81
60 68 70 71 72 71 67 66 66 67 70 69 71 69 70 65 59 60 60 56 59 60 62 68 73 69 71 76 73 71 71 76 76 74 76 79 81 83 83 82 81 80 80 79 79 80 80 82 82 83 82 83 83 84 84 85 86 86 85 84 82 82 82
50 66 69 70 69 67 62 64 68 68 67 68 72 75 75 75 74 66 60 62 62 68 69 71 74 73 69 69 71 69 71 71 77 76 77 78 78 79 77 77 78 80 81 80 79 81 82 82 83 84 84 84 83 84 84 85 86 85 84 84 83 82 82
49 60 67 68 61 52 56 67 74 72 70 70 67 66 68 72 74 66 71 74 65 62 64 70 72 74 69 68 69 69 75 73 72 75 79 80 81 82 82 81 81 81 81 82 82 82 82 83 85 86 85 85 85 85 85 85 84 84 84 83 83 82 82
49 56 60 57 52 53 58 66 73 77 76 74 70 65 67 68 69 72 69 65 65 64 69 70 66 62 67 70 71 72 75 72 72 76 78 79 80 82 82 83 84 84 83 84 83 83 84 85 85 85 85 86 86 85 84 83 84 84 84 83 82 82 82
49 50 53 49 51 56 64 67 70 73 75 72 71 62 66 65 66 66 62 64 65 67 69 70 69 72 73 75 74 75 76 76 75 73 74 77 80 82 84 85 84 83 84 84 85 85 86 85 85 85 85 86 86 84 84 84 83 84 83 83 82 82 82
45 46 51 53 58 64 67 67 68 67 63 67 65 55 59 65 65 66 68 66 69 66 68 67 68 68 71 69 68 75 76 75 77 77 77 76 76 79 82 83 81 81 84 85 86 86 85 85 85 85 87 87 85 84 83 83 83 83 83 82 82 82 82
51 47 46 52 51 50 53 55 63 72 72 71 71 65 58 64 67 67 66 64 65 66 67 66 65 67 67 60 64 71 76 77 76 77 79 81 79 77 76 78 84 85 83 83 83 83 84 83 84 85 86 85 84 83 82 82 82 82 82 82 83 82 82
53 49 45 46 48 48 51 64 67 73 73 75 69 62 53 61 64 67 67 66 64 64 66 65 67 63 54 58 62 69 72 74 74 72 73 76 77 77 76 77 80 81 82 84 86 83 81 81 82 82 82 83 83 82 82 82 82 82 82 83 83 83 83
50 47 47 45 50 54 60 65 72 72 72 73 68 48 49 59 65 68 68 67 66 65 65 68 66 64 58 59 63 70 71 72 71 70 70 70 72 74 77 76 76 78 79 78 79 81 81 82 83 82 81 82 82 82 82 83 82 82 83 84 85 85 85
50 50 45 48 54 58 62 63 66 72 74 69 57 44 57 62 64 68 67 67 66 66 66 66 64 62 63 66 68 70 70 70 69 70 70 70 71 72 73 72 74 73 74 78 80 82 83 84 84 82 82 82 82 82 82 81 81 83 85 85 85 85 84
45 47 44 45 50 57 61 62 65 71 71 60 45 56 62 65 65 66 68 67 66 66 65 64 64 65 67 68 68 67 67 67 66 68 68 68 69 71 71 71 71 73 73 71 73 76 77 78 79 79 80 82 82 82 81 81 83 85 85 85 85 84 83
47 47 42 42 41 54 63 61 63 65 59 51 62 65 66 68 65 65 65 66 65 66 63 64 64 65 65 65 65 65 65 65 65 65 65 65 66 66 68 69 70 71 69 69 70 71 75 79 80 80 79 77 79 80 81 82 85 86 85 84 84 83 82
41 41 40 40 50 57 64 59 52 61 62 66 67 66 62 65 65 64 63 63 64 64 63 63 63 63 63 63 64 63 64 64 64 64 65 65 65 66 68 68 68 70 68 68 70 71 71 71 74 79 80 79 78 76 78 83 84 84 83 83 83 82 81
47 45 49 54 58 60 62 60 59 65 68 69 68 66 64 63 62 64 63 62 64 64 63 62 62 62 63 63 63 62 63 64 63 63 64 65 65 66 65 66 67 68 68 67 68 68 69 70 70 71 77 79 77 78 80 79 78 80 82 82 81 81 81
55 57 57 57 59 59 60 64 63 62 68 69 68 66 63 63 64 64 63 63 63 63 63 62 61 62 62 62 62 63 64 64 64 64 65 65 66 66 66 65 66 67 68 68 67 67 67 68 69 69 71 74 78 79 80 79 80 80 80 79 80 80 80
48 42 56 56 56 58 60 59 63 64 67 67 67 65 64 64 65 65 65 64 63 63 63 62 61 61 62 61 61 62 63 63 63 64 63 64 64 64 64 65 66 65 66 66 66 66 66 67 68 70 70 69 69 70 71 73 75 76 76 77 77 78 78
48 48 53 55 58 59 60 59 57 58 63 65 66 65 65 65 65 65 65 65 64 64 62 61 61 60 61 60 60 62 63 63 63 62 63 63 63 63 64 65 66 65 65 65 66 66 66 68 69 69 68 68 69 70 70 71 71 71 70 70 73 76 77
52 55 56 55 57 58 58 59 61 60 62 64 65 65 65 65 64 64 65 65 64 63 62 62 61 60 60 60 61 61 62 63 63 63 63 63 63 63 63 64 65 65 66 66 66 66 66 68 69 68 68 68 69 68 69 70 70 68 67 67 68 71 73
46 48 50 54 50 49 53 56 58 59 61 63 62 64 64 64 62 62 62 62 63 63 63 62 62 60 59 60 61 61 61 62 62 63 64 64 64 65 65 65 64 66 67 66 66 66 66 67 68 68 68 68 69 70 69 69 69 68 67 67 68 68 68
46 53 55 56 56 54 55 56 58 60 61 61 61 60 62 63 63 63 62 61 60 61 61 62 61 60 60 60 61 61 61 62 63 64 64 63 64 65 65 65 65 64 65 66 66 65 65 66 67 68 68 69 69 69 69 69 70 69 68 67 67 67 67
55 57 57 57 55 53 55 58 58 58 59 60 62 63 63 62 62 62 61 60 59 59 60 61 62 61 61 61 62 60 61 62 63 64 64 65 64 64 66 66 66 65 64 65 65 64 64 65 66 67 68 68 68 69 69 69 69 69 69 67 66 65 66
52 58 58 58 56 56 57 58 58 58 59 59 59 62 62 62 62 62 60 59 60 60 59 59 60 61 62 62 61 60 61 62 64 65 65 65 66 64 64 65 65 66 66 66 66 66 65 67 68 68 67 67 68 69 69 69 68 68 67 67 66 66 66

ECMWFFLT2_sfc_temp_042.txt.gz
Temp
69 72 70 69 71 54 55 61 56 61 62 63 53 49 48 49 46 43 43 51 52 56 62 68 67 69 73 74 76 78 78 79 79 77 78 79 80 80 81 81 81 80 81 81 81 81 82 82 81 80 79 80 79 79 78 77 77 78 77 77 78 78 78
68 71 73 70 74 64 58 55 61 62 67 65 57 45 46 46 40 42 45 52 49 54 53 57 66 64 70 70 73 76 78 79 77 78 77 79 80 81 81 81 81 82 81 81 82 83 83 83 82 81 80 81 80 80 80 78 78 77 78 78 78 78 77
68 67 69 65 70 71 69 62 67 66 46 50 46 48 45 40 39 40 41 44 51 51 53 56 63 65 67 69 71 73 75 76 77 78 78 79 80 81 80 81 81 81 81 82 81 83 84 84 82 82 82 82 81 81 81 81 79 79 79 80 79 79 79
65 66 66 56 62 67 69 65 64 63 58 51 47 51 40 47 38 42 40 46 53 53 59 57 67 67 69 70 70 72 75 77 78 79 80 79 78 79 81 82 82 82 83 84 84 84 84 84 83 83 84 83 83 82 81 80 81 80 79 79 79 78 79
63 55 60 62 63 61 62 60 58 59 61 58 61 52 57 48 40 39 41 43 45 50 58 65 67 69 70 72 71 72 75 77 79 80 81 80 80 80 81 82 82 83 83 84 85 85 85 86 85 85 85 83 83 83 82 81 80 80 80 80 79 79 79
53 54 65 70 68 69 65 63 60 62 58 52 49 47 51 50 48 38 39 48 48 49 60 67 67 68 71 71 71 72 74 77 77 80 81 81 81 80 81 83 84 84 84 84 85 85 85 85 85 84 84 84 83 82 83 82 82 81 81 80 79 79 79
56 62 68 73 75 72 71 67 64 65 58 52 49 41 47 50 52 48 45 43 57 60 63 65 69 69 69 71 72 73 75 75 77 79 81 81 81 81 82 83 84 85 84 84 84 83 83 83 83 84 83 84 83 83 83 83 82 82 82 82 81 79 79
58 62 62 65 65 67 66 66 67 64 62 63 60 59 47 52 46 51 48 47 53 59 61 67 68 68 68 64 67 72 75 76 76 77 79 79 79 80 81 82 83 83 84 83 81 81 81 81 81 82 83 83 83 83 84 83 82 82 82 82 82 80 79
51 56 58 59 60 64 60 61 65 67 67 66 64 56 45 52 51 54 48 48 52 62 56 60 62 63 68 71 69 69 72 72 74 75 76 76 76 77 77 78 80 81 82 80 79 80 79 80 82 82 82 82 83 82 84 84 83 84 83 83 82 81 80
39 40 42 43 48 54 55 58 64 66 67 64 59 58 50 49 47 51 50 52 39 49 53 64 64 63 64 65 64 66 68 69 72 72 74 72 72 74 76 78 78 79 80 80 79 78 79 81 82 80 81 82 83 83 83 84 84 83 83 83 82 81 81
41 44 43 48 53 51 56 60 61 63 66 68 66 59 52 53 42 50 55 52 50 60 66 64 66 63 67 71 66 66 68 68 68 66 69 71 72 74 76 77 78 77 77 78 79 78 81 82 82 82 82 82 83 81 82 84 84 83 82 82 81 81 81
47 50 50 54 54 50 52 55 61 62 63 64 63 59 57 50 48 50 53 45 57 58 60 59 60 62 61 62 63 65 64 65 68 71 69 71 72 73 72 73 74 75 77 78 78 78 80 81 81 82 83 83 82 81 82 83 84 84 83 82 81 80 80
50 51 52 54 53 54 55 57 59 61 63 62 61 62 55 58 59 57 56 48 54 55 58 62 62 65 69 70 70 71 70 68 66 66 69 69 70 72 71 71 73 75 77 77 77 78 79 81 80 81 81 81 81 81 82 82 84 83 82 81 80 80 79
47 50 51 53 52 53 54 56 58 62 64 63 64 64 63 61 60 62 59 50 59 63 65 65 65 64 69 65 64 66 67 72 69 66 65 70 72 73 73 73 74 75 77 78 77 78 78 79 79 81 80 80 81 81 81 82 81 83 81 80 79 79 79
44 48 52 53 53 51 51 55 57 61 63 65 66 66 65 62 62 63 57 51 55 61 62 72 73 66 64 62 67 69 68 69 70 68 69 70 71 73 73 72 74 76 77 78 77 77 77 78 79 80 80 80 81 83 82 82 81 82 82 79 79 79 78
40 47 49 50 52 52 51 52 55 57 60 59 63 62 64 60 57 58 59 54 54 58 61 63 67 64 64 69 67 64 66 66 64 65 68 69 70 71 72 72 73 74 76 76 76 77 78 79 79 80 79 80 80 81 81 81 83 83 82 80 79 78 79
34 46 48 49 49 50 52 57 61 60 60 62 62 63 65 68 68 62 58 61 63 65 65 64 68 69 66 64 66 63 62 58 61 65 68 69 70 70 67 69 71 74 77 78 77 79 79 79 80 81 81 81 79 80 80 81 81 81 80 80 79 79 79
35 45 46 48 43 37 47 56 59 62 63 63 61 63 62 64 68 69 70 70 68 67 63 65 69 70 68 65 62 61 64 61 60 62 63 66 69 70 70 70 73 74 75 77 78 78 78 80 83 82 81 82 81 82 81 80 80 79 79 79 79 79 79
34 43 44 39 36 43 52 60 62 58 61 66 66 66 66 65 66 67 64 64 65 67 68 70 73 68 61 62 63 63 64 61 60 60 62 62 63 65 68 69 72 73 73 75 75 75 78 81 81 80 80 82 81 80 79 79 79 79 79 79 79 79 79
40 37 35 32 38 47 56 59 57 59 59 58 59 63 68 67 66 66 66 66 67 67 66 66 62 62 63 63 63 64 64 64 62 62 62 64 64 64 66 66 68 70 73 74 76 76 78 78 79 80 81 82 81 80 79 80 79 79 79 78 78 78 78
33 34 35 39 47 50 51 49 52 53 49 50 49 46 57 61 62 63 65 67 65 63 61 60 60 62 64 63 64 66 65 64 64 64 64 65 65 65 66 67 66 66 69 73 74 74 75 77 78 79 79 80 79 78 78 79 78 78 78 78 78 78 79
44 35 33 35 35 35 40 50 55 58 59 58 55 50 49 57 61 65 68 66 66 60 58 60 62 62 67 61 65 66 66 65 65 65 65 66 66 67 67 67 68 69 67 70 73 76 74 74 75 76 78 79 78 77 77 77 77 77 78 78 79 78 79
39 37 33 32 33 37 44 49 54 58 59 59 56 50 49 55 56 57 64 69 67 62 61 61 61 65 64 60 61 62 63 64 65 64 65 65 66 66 66 66 67 68 68 68 73 74 73 74 74 75 76 77 77 76 77 77 77 78 78 78 79 79 79
42 38 35 35 40 43 48 52 55 58 60 58 54 45 45 53 56 59 59 64 65 63 64 64 64 68 62 62 64 63 64 64 65 64 63 64 64 65 66 67 68 68 69 70 69 69 71 72 73 76 76 77 77 76 76 77 77 77 78 79 80 81 81
44 44 39 41 43 49 52 54 57 60 60 57 50 45 50 56 57 60 60 63 65 65 64 65 66 61 62 63 63 64 64 64 63 65 65 65 65 64 66 66 68 67 68 68 67 68 68 68 70 74 76 77 76 76 75 75 76 78 79 80 79 79 79
42 42 40 39 43 47 53 57 57 59 56 46 43 52 57 58 59 61 61 61 62 63 66 63 63 61 63 64 64 63 63 63 63 64 64 64 65 65 67 67 66 67 66 66 67 67 67 68 69 72 74 75 75 74 75 75 77 80 79 79 78 78 78
47 44 40 37 33 46 56 56 56 57 48 48 54 56 58 60 61 61 61 60 61 64 61 62 62 62 62 63 62 62 62 63 63 63 63 63 63 64 64 64 66 66 65 65 65 66 67 68 68 69 72 74 74 73 74 76 78 79 79 78 78 78 78
40 40 39 38 44 50 57 55 47 53 54 56 57 56 55 60 60 59 60 60 61 63 62 61 61 61 60 60 61 62 62 62 64 64 64 64 64 65 65 65 65 66 66 66 66 67 67 68 68 68 69 69 70 71 71 71 73 76 78 77 77 77 77
46 43 46 51 52 54 56 55 55 57 59 59 58 57 57 57 58 60 59 60 62 63 61 61 60 60 61 60 61 61 61 63 64 64 64 64 64 64 64 65 65 66 66 66 66 66 67 67 68 68 68 68 68 68 68 69 70 72 75 76 76 76 77
52 54 53 55 54 55 55 58 59 58 58 59 59 58 56 58 59 59 58 59 60 61 62 61 60 60 61 61 61 62 63 64 64 65 65 65 66 66 66 65 66 66 67 66 66 66 66 67 67 67 67 67 67 67 68 69 70 71 73 74 75 76 77
46 41 54 53 53 54 54 55 58 60 60 58 58 58 58 58 60 60 60 59 59 60 61 61 60 61 62 61 62 62 63 63 63 64 64 64 64 64 64 65 66 65 65 64 64 65 65 66 67 67 67 67 67 68 69 69 70 70 72 73 74 75 75
44 45 52 54 56 54 55 55 54 54 56 58 59 59 60 60 61 61 60 61 60 60 59 60 61 60 61 61 60 61 62 62 63 63 64 64 64 65 65 66 66 65 64 64 64 64 65 66 67 67 67 67 67 67 68 69 69 69 69 70 71 73 74
49 53 54 54 55 55 55 56 56 56 56 56 58 58 59 59 58 60 61 61 60 59 58 59 60 59 60 61 62 62 61 62 62 63 63 64 64 65 65 65 66 65 65 64 64 65 65 66 67 67 67 68 68 67 68 69 69 69 68 68 69 70 71
42 46 49 53 48 47 52 54 55 56 58 58 57 58 57 57 56 57 58 60 61 60 59 58 59 60 60 61 62 62 62 62 62 63 63 64 64 65 66 66 67 67 67 66 64 64 64 65 67 67 67 67 67 68 68 68 68 68 68 68 68 68 68
43 51 54 54 54 53 53 54 56 57 58 58 56 56 56 57 57 57 57 57 57 57 58 60 60 59 60 60 63 63 62 62 63 64 64 64 64 64 66 66 66 66 66 66 65 65 64 65 66 67 67 67 67 67 68 67 67 67 66 67 66 66 66
49 54 56 55 53 51 53 55 56 56 58 58 57 58 58 58 57 57 57 57 56 56 58 59 60 59 60 60 62 61 61 62 63 63 64 64 64 65 66 66 66 66 66 66 65 65 66 65 65 66 66 67 67 67 68 67 67 66 66 66 65 64 64
48 55 56 56 55 55 55 56 56 57 59 58 56 57 58 58 58 59 57 57 58 58 57 57 59 60 59 60 60 60 60 62 62 64 64 64 64 63 64 64 64 65 65 66 66 66 66 67 67 67 66 66 67 68 67 66 66 66 65 65 65 65 65

ECMWFFLT2_sfc_temp_045.txt.gz
Temp
77 78 80 77 80 60 69 71 63 68 78 73 64 62 63 62 59 57 67 65 71 78 79 83 84 82 83 86 87 88 87 88 86 85 87 87 87 87 87 87 87 85 87 86 86 86 87 87 86 85 84 84 84 83 83 82 82 83 82 82 82 82 82
77 83 81 80 80 80 71 63 70 78 81 77 66 57 59 58 55 58 63 62 65 67 64 79 82 81 83 83 84 88 87 87 85 86 86 86 87 88 87 87 87 87 87 87 87 88 88 88 88 86 84 85 85 85 84 83 82 81 82 82 82 82 82
75 78 80 75 80 82 75 72 82 69 59 57 64 61 51 52 52 56 60 64 66 69 68 76 75 78 81 82 83 85 86 87 87 87 87 87 88 88 87 87 87 87 87 87 87 88 90 89 87 87 86 87 87 86 86 86 84 84 84 85 84 83 83
74 75 75 62 69 76 76 80 74 80 73 65 58 61 62 62 55 54 57 60 60 71 74 79 79 80 81 84 82 83 87 88 88 88 89 87 86 86 87 88 88 88 89 90 90 89 90 90 89 89 90 90 89 88 86 86 87 85 84 84 83 82 83
74 64 71 68 70 67 69 70 69 70 71 75 73 68 65 60 57 56 56 56 64 72 80 81 81 83 84 84 83 82 84 87 90 90 89 88 86 86 87 88 89 89 89 91 91 91 91 92 91 91 92 90 90 90 88 88 85 85 85 85 84 83 84
65 69 75 77 76 76 73 71 68 70 67 62 58 56 69 67 61 53 56 55 67 77 80 82 84 86 87 86 85 84 86 88 88 89 90 89 87 87 88 89 91 91 90 90 92 92 91 92 92 92 92 91 91 90 90 89 89 88 87 86 84 83 84
68 72 76 81 82 81 78 76 72 76 74 71 63 53 59 65 67 68 65 59 63 80 78 80 85 87 88 89 88 86 88 88 90 89 91 90 88 88 90 90 92 92 90 90 90 89 88 89 89 91 91 91 90 90 90 89 89 88 89 88 87 84 83
71 75 76 77 76 75 74 76 78 75 71 72 69 68 67 63 64 60 62 56 65 78 77 81 85 84 87 85 84 84 88 89 89 88 89 88 87 87 89 90 92 90 91 89 87 87 86 86 87 89 89 89 90 90 91 91 90 89 89 89 88 85 84
60 66 72 74 73 73 71 72 75 76 77 76 76 72 64 63 65 66 62 54 65 77 74 75 77 80 83 86 86 83 83 85 87 87 86 86 85 85 87 87 88 88 90 87 84 85 84 85 88 88 88 88 90 89 91 91 91 91 90 89 88 87 86
46 46 49 54 62 66 67 70 73 74 74 72 70 63 61 56 63 65 63 63 71 77 75 77 78 79 79 83 85 85 83 81 84 85 85 83 83 82 84 85 86 86 85 85 84 84 84 86 88 86 86 88 90 89 89 92 91 90 90 90 89 87 87
54 52 51 55 57 60 61 65 66 70 74 76 73 70 62 59 62 62 65 67 70 74 79 79 81 79 81 84 86 84 82 84 82 80 80 81 81 81 83 83 85 84 83 83 84 83 86 88 88 88 88 88 89 87 88 91 91 90 89 88 87 87 87
53 56 56 60 59 55 59 59 63 67 68 72 70 66 63 66 63 57 67 68 67 72 76 78 80 82 79 80 80 82 82 81 83 83 79 79 81 82 82 82 82 82 82 83 83 83 85 86 87 88 89 89 88 87 88 89 91 91 90 88 86 86 86
56 58 59 61 59 58 59 60 61 62 65 66 66 67 70 68 64 61 67 66 65 72 79 82 82 82 83 85 86 87 86 84 83 80 82 84 86 85 83 80 81 82 82 82 83 84 84 86 86 87 88 88 87 87 88 88 91 90 89 87 86 86 84
55 58 60 61 58 58 59 59 61 63 64 64 65 67 72 71 67 71 71 66 70 77 80 83 85 83 87 88 83 81 82 87 84 83 81 86 88 88 86 84 83 81 82 83 83 84 83 84 85 87 87 86 88 88 88 89 88 90 88 86 85 85 84
53 57 60 60 59 58 56 60 62 63 64 65 66 67 69 70 70 73 74 67 67 79 82 84 87 82 79 78 81 86 84 84 86 84 86 86 87 88 87 85 83 82 82 83 83 83 83 83 84 85 86 86 87 91 89 90 87 89 89 85 84 84 83
50 56 57 58 59 59 59 59 62 63 64 62 66 64 69 67 65 68 69 66 67 76 79 81 79 78 77 80 81 83 83 86 82 81 85 85 84 84 84 83 82 81 82 82 83 83 85 85 85 85 84 87 87 88 88 88 90 91 89 87 85 83 84
48 55 57 56 56 58 56 59 65 67 68 68 70 72 73 73 74 68 64 67 76 78 79 79 81 83 82 81 82 82 82 79 82 83 85 87 86 83 80 80 80 82 84 85 83 85 87 86 86 87 87 88 85 86 86 87 88 88 86 86 85 84 84
48 53 55 56 52 45 51 63 63 65 66 68 67 68 71 74 75 73 77 77 79 80 79 79 80 83 82 83 83 84 83 82 81 83 83 84 84 81 81 80 81 81 82 84 86 86 85 87 90 88 88 88 87 88 87 87 86 85 85 85 84 84 84
46 52 53 48 42 48 62 66 68 66 66 65 65 70 75 76 77 77 76 78 79 80 81 81 81 83 85 81 82 82 82 79 82 82 84 79 78 78 78 77 80 79 79 80 82 83 86 89 89 88 88 89 89 87 87 86 85 84 85 84 84 84 84
51 48 48 38 45 57 63 68 65 66 66 65 65 67 71 74 77 77 76 78 80 80 80 82 83 81 78 77 74 75 77 77 78 80 81 80 79 79 78 76 75 75 78 79 82 84 87 88 90 89 89 90 90 87 87 86 85 84 84 84 84 84 84
43 47 48 47 57 56 61 62 61 62 60 59 59 58 65 68 69 70 73 77 80 82 82 81 80 78 79 77 77 77 78 75 76 77 77 77 76 75 76 77 77 77 77 77 80 83 85 87 89 89 90 90 89 87 86 86 84 84 84 83 84 83 84
51 46 44 47 47 43 53 59 63 65 65 64 62 59 59 66 66 67 65 67 73 78 81 78 76 76 75 74 78 79 78 76 75 75 75 76 75 76 76 75 77 78 78 79 80 83 85 85 87 87 88 88 86 84 84 84 84 83 84 84 84 84 84
49 46 43 43 41 49 60 60 62 65 66 65 65 59 58 63 63 65 65 66 68 69 73 75 74 74 72 75 80 79 77 76 77 75 75 76 76 76 75 74 76 77 78 79 83 83 84 83 84 85 85 86 86 84 84 84 84 85 84 84 85 85 85
47 47 44 42 50 50 59 61 63 67 68 65 63 52 57 59 63 64 65 64 66 67 68 71 73 74 73 77 83 79 78 76 74 73 72 72 73 75 75 75 76 76 76 78 78 78 78 77 80 84 85 86 85 84 83 86 85 84 84 85 86 86 87
45 44 46 51 53 60 65 64 65 68 66 63 55 50 58 61 63 65 64 64 66 67 67 70 69 76 76 77 76 76 75 73 71 71 70 70 70 71 72 72 73 76 76 75 74 73 74 76 80 83 84 85 84 84 83 83 83 85 86 86 85 85 85
42 46 44 46 54 63 68 67 66 68 64 52 54 61 59 62 63 64 63 61 64 66 67 69 71 72 71 74 75 74 73 71 70 70 70 70 71 72 71 70 72 74 75 73 73 74 75 78 81 83 83 83 82 83 82 82 84 86 86 86 85 85 84
47 46 43 43 36 55 67 65 63 66 58 60 61 61 64 64 64 63 62 62 63 65 67 72 72 70 72 72 72 71 69 69 68 68 68 68 69 69 70 71 72 74 72 71 71 72 74 76 79 82 84 81 81 81 81 80 82 85 85 86 85 85 84
41 42 39 41 53 60 65 66 60 64 65 64 63 62 63 64 64 62 61 62 62 63 66 69 69 69 68 66 66 67 68 69 68 68 68 69 69 70 71 71 72 73 71 71 70 71 73 73 74 77 80 79 80 79 75 76 78 81 84 85 84 84 83
45 45 49 56 57 60 65 66 66 66 64 65 64 63 63 62 62 62 60 60 62 63 64 66 66 64 65 65 67 67 68 69 69 68 69 69 69 70 70 71 71 72 72 69 69 69 71 71 72 73 76 76 74 72 72 75 76 78 80 82 83 83 83
51 55 55 57 58 60 62 67 67 66 64 66 66 64 63 61 61 61 59 61 61 62 64 64 64 64 64 65 67 67 68 68 68 69 69 69 70 72 72 71 71 71 70 70 69 68 69 71 71 71 72 74 71 71 74 75 75 76 80 80 81 82 83
43 38 56 57 57 60 61 63 65 66 67 65 66 63 62 62 62 62 63 62 61 61 63 64 64 65 66 65 65 66 66 67 67 68 68 68 69 69 69 70 70 71 71 70 69 69 68 70 72 72 71 71 71 73 74 77 77 77 78 78 79 80 81
39 41 51 53 53 56 61 62 62 62 63 64 64 64 64 64 64 64 64 64 62 63 62 63 63 64 65 64 64 65 65 66 68 68 69 68 68 70 71 71 71 70 70 69 69 69 69 70 71 72 72 72 73 73 74 75 76 76 76 76 77 77 78
45 49 50 51 51 52 56 61 63 64 64 63 62 62 62 63 63 63 64 65 64 64 62 63 63 63 64 65 65 65 66 66 67 67 67 68 69 70 69 70 70 69 68 69 69 68 69 71 71 71 71 73 73 73 73 74 75 75 74 75 76 76 75
37 40 47 53 46 47 54 59 61 62 64 64 62 62 61 61 61 62 62 63 65 65 64 63 63 62 63 65 65 65 65 65 66 67 68 69 70 70 70 71 70 70 70 69 69 68 69 71 71 71 71 72 73 74 74 74 74 73 73 73 73 73 74
40 49 53 55 54 51 54 57 62 63 64 63 60 59 60 61 62 61 61 61 62 63 62 63 61 60 60 62 65 65 65 65 66 66 67 69 69 69 70 70 69 69 70 70 70 70 70 71 71 72 72 73 74 74 74 75 74 74 73 71 71 71 72
51 54 54 55 51 48 51 57 61 62 64 62 60 61 62 62 61 61 61 61 60 60 61 61 61 61 62 63 65 64 65 66 66 66 66 67 68 69 70 69 69 69 69 70 70 69 71 71 71 71 72 73 74 75 75 74 74 74 74 72 70 70 71
47 55 55 55 53 53 56 56 59 63 64 63 60 60 60 61 62 63 61 61 62 61 60 59 60 62 65 65 65 64 63 64 66 67 67 66 67 67 68 68 68 68 68 69 69 70 70 70 70 71 71 72 74 75 74 74 75 73 73 73 71 71 71

ECMWFFLT2_sfc_temp_048.txt.gz
Temp
85 84 87 86 88 67 77 79 71 76 86 81 71 72 73 73 69 66 76 73 78 87 88 90 90 92 93 95 97 98 97 99 97 97 98 98 98 98 97 96 95 93 94 93 93 92 93 93 92 91 89 89 89 89 89 87 87 88 87 86 87 87 87
85 89 89 88 88 89 82 71 78 87 89 85 74 64 67 65 61 65 74 70 73 73 70 90 90 88 91 93 94 98 97 98 96 97 97 97 98 99 98 96 95 95 94 93 94 95 95 94 93 91 89 91 90 90 90 88 87 86 87 87 88 88 86
85 89 88 84 88 90 84 80 91 76 66 64 72 68 58 60 59 64 71 75 75 77 75 84 84 88 89 91 93 95 96 97 97 97 97 97 99 99 98 97 95 95 95 94 93 95 96 95 92 92 92 92 92 92 92 92 89 89 89 90 89 88 88
84 84 82 70 77 86 89 90 84 88 81 72 66 68 70 69 63 63 67 73 69 80 82 87 86 88 90 92 93 94 97 98 98 97 99 98 97 97 98 98 97 96 97 97 97 96 97 96 95 95 95 95 95 94 91 91 92 90 89 89 88 87 88
84 72 78 75 78 74 76 77 77 80 79 85 81 79 72 68 64 65 65 66 73 82 90 89 89 89 90 92 92 93 95 98 101 100 99 98 98 97 97 98 98 97 97 99 99 98 99 99 98 98 98 96 96 96 94 93 91 91 91 91 90 88 88
73 77 84 84 83 82 79 77 75 79 74 70 64 63 78 75 69 60 65 64 76 85 92 90 91 93 93 94 94 94 96 99 99 101 101 100 98 97 98 99 100 100 98 98 100 99 99 99 99 98 98 98 97 96 96 95 95 94 93 92 89 88 88
76 81 86 88 89 88 85 82 79 82 80 78 70 58 66 74 74 77 74 68 72 89 90 91 92 93 96 96 97 96 98 98 100 100 103 101 99 98 100 100 102 101 99 98 98 97 96 97 97 98 98 98 97 97 97 96 95 95 96 94 93 89 89
81 85 88 87 88 87 82 83 85 82 77 79 76 74 76 71 73 69 70 64 74 87 89 90 93 92 96 97 98 96 98 100 100 100 100 98 95 95 98 99 101 99 100 98 95 95 94 94 94 96 97 97 97 98 98 98 96 96 96 96 95 91 89
68 74 78 80 85 85 81 80 82 84 84 83 82 82 80 70 74 74 69 61 72 86 89 89 91 93 95 96 98 98 96 98 100 100 98 97 94 94 96 96 96 97 99 96 92 93 91 92 96 95 95 96 97 97 98 99 98 98 96 96 95 93 92
53 53 55 60 67 73 79 82 83 83 82 80 76 70 72 63 69 72 70 70 80 85 86 88 90 92 91 95 97 100 99 96 97 97 96 93 93 91 92 94 94 95 94 94 92 92 91 93 95 93 93 96 97 97 97 99 99 97 97 98 96 94 93
64 67 64 71 74 78 73 76 79 81 83 84 81 77 71 66 69 68 72 74 78 79 83 84 88 90 90 92 94 95 96 97 96 92 92 94 92 90 93 92 93 92 92 91 91 91 93 95 95 95 95 95 96 94 95 98 99 98 95 95 94 94 93
62 65 65 71 70 73 77 76 77 80 80 80 78 73 70 76 71 64 74 75 74 79 83 86 87 90 90 92 93 95 95 94 95 96 90 88 92 93 92 91 91 90 90 90 91 90 92 94 94 95 96 96 95 94 95 96 99 99 98 95 93 93 92
65 66 68 71 70 70 70 74 77 76 79 79 75 75 79 77 70 67 74 75 74 79 86 88 88 89 90 93 95 97 97 97 97 94 94 98 99 95 93 90 90 90 91 90 90 92 92 94 93 94 95 95 94 94 95 95 99 98 96 94 93 93 91
63 66 67 69 68 68 69 71 72 74 76 76 77 77 80 79 73 76 77 76 77 83 86 89 91 92 93 94 95 96 95 97 94 96 95 98 100 101 98 93 93 90 91 91 90 91 90 92 92 94 94 93 94 94 94 96 95 97 95 93 91 91 90
62 66 68 67 67 67 65 69 72 73 74 74 75 76 77 77 77 80 79 75 74 85 88 89 92 92 95 94 94 95 94 94 96 96 97 97 99 101 101 96 94 93 92 92 91 90 90 90 91 92 92 93 94 97 96 96 94 96 97 92 90 90 89
60 65 65 67 67 67 66 66 69 71 72 70 73 71 76 74 71 74 75 71 73 83 88 90 90 91 90 89 90 91 92 96 95 95 96 97 97 99 100 100 97 93 92 91 91 91 92 93 91 92 91 93 94 95 95 95 97 98 96 94 91 89 90
58 64 65 64 65 64 61 64 69 72 73 75 77 78 78 78 79 73 69 72 81 84 87 86 86 89 89 90 91 91 92 92 94 94 96 98 99 99 97 98 95 97 98 97 92 93 95 95 94 94 93 95 92 93 93 94 95 95 93 93 90 89 90
57 61 61 64 59 51 55 74 79 77 73 74 72 74 77 80 81 78 82 82 85 86 86 85 85 86 87 89 91 94 91 91 92 96 97 99 100 101 101 101 98 96 94 94 96 95 92 95 99 96 94 95 94 94 94 94 93 92 91 91 90 89 89
53 59 59 54 49 54 69 75 78 77 79 79 77 78 81 82 83 83 81 83 83 84 86 87 87 88 91 94 94 96 98 96 94 93 95 95 95 96 96 95 96 94 91 90 91 90 94 97 96 96 95 96 96 94 93 92 92 90 91 90 90 89 89
57 55 55 45 51 64 69 74 75 76 77 77 74 72 77 79 81 82 81 83 85 85 86 88 90 89 92 94 94 93 96 97 94 95 95 97 98 98 98 94 90 88 90 90 92 91 93 95 97 97 96 97 98 94 93 92 91 91 90 89 89 89 89
49 53 54 55 64 63 67 67 70 73 70 70 70 66 73 81 82 79 77 80 84 86 88 90 91 92 94 89 89 96 97 95 97 97 97 99 96 93 90 91 90 87 87 87 89 89 89 92 95 96 98 97 96 95 92 93 90 90 90 89 89 89 89
57 52 51 53 53 49 59 69 72 75 75 74 73 70 71 76 77 77 77 76 79 81 84 85 85 86 82 80 84 93 99 99 97 97 97 94 90 90 90 87 87 87 87 88 88 89 89 90 92 94 96 95 93 92 91 91 90 89 90 89 90 89 89
54 52 48 49 48 55 67 70 72 75 76 77 74 69 66 72 75 75 76 77 77 77 78 79 80 80 77 79 85 94 99 100 99 95 93 93 92 88 86 86 87 87 85 85 89 89 88 89 90 92 92 93 93 91 90 90 91 91 90 90 91 90 90
53 53 50 48 56 56 66 71 73 77 78 75 72 57 62 69 75 75 75 74 75 75 74 76 76 75 76 82 87 89 94 95 92 89 86 85 85 86 85 86 85 83 83 85 86 88 88 87 89 90 92 92 91 90 89 93 92 91 90 91 91 92 92
51 48 51 56 58 67 72 72 74 76 77 73 60 53 66 70 73 74 74 75 75 74 73 75 74 79 83 85 86 90 89 89 86 85 84 82 82 82 84 82 80 84 84 84 84 83 84 84 88 90 91 91 90 90 90 89 89 92 92 92 91 91 91
50 52 49 51 59 68 74 76 78 78 70 58 60 66 70 73 73 75 74 74 74 73 72 73 75 78 83 84 87 86 86 85 82 83 83 83 83 83 81 79 81 83 84 82 83 84 85 88 89 90 90 88 88 89 89 89 90 93 93 92 91 91 90
54 53 49 48 40 63 73 75 73 76 62 68 70 73 75 77 76 76 75 74 74 73 72 74 74 77 81 83 84 83 81 81 80 79 80 79 79 79 80 81 82 84 81 80 82 84 88 89 90 90 90 87 87 87 87 88 92 92 92 91 90 90 89
47 48 45 46 59 63 71 68 63 68 71 72 74 74 75 77 76 75 75 75 73 73 71 72 74 75 78 80 80 79 79 79 79 78 77 78 79 79 82 83 82 82 79 80 82 83 84 85 87 89 89 86 86 85 83 85 87 89 89 90 89 89 89
48 51 57 63 61 65 70 70 70 71 73 75 74 74 74 74 76 73 74 73 73 73 72 71 72 73 77 78 80 78 79 79 79 78 77 78 79 80 79 80 80 83 82 78 80 80 81 81 83 84 85 82 81 80 81 84 85 87 87 88 88 88 88
57 60 60 62 64 66 69 72 71 70 72 76 76 74 72 74 73 74 72 72 72 72 71 70 73 74 74 74 76 78 79 79 78 76 76 77 79 80 79 77 78 79 80 79 79 78 79 81 80 81 82 82 79 79 82 82 84 86 86 86 87 87 88
49 44 60 61 62 65 66 66 69 71 72 73 75 73 72 73 74 75 73 72 71 70 69 68 68 70 73 72 73 74 74 75 75 75 75 76 76 77 75 76 77 78 78 78 77 77 77 81 82 83 82 82 82 83 84 86 85 85 86 86 85 86 87
47 48 56 59 62 63 65 66 66 66 68 70 72 73 73 74 74 74 74 74 72 71 68 67 68 68 70 70 71 71 72 73 75 75 75 75 75 76 76 76 77 78 78 77 76 76 76 77 78 78 79 79 80 82 83 85 85 84 83 84 85 85 87
55 58 60 60 61 62 64 67 69 70 70 69 69 69 70 71 72 73 73 75 73 70 68 68 67 67 68 70 71 72 72 73 73 73 74 75 75 75 75 75 75 75 75 75 76 76 76 77 77 77 78 78 79 79 82 83 83 83 82 81 82 81 80
48 51 56 59 53 56 64 67 67 65 64 62 62 66 68 69 69 71 71 70 72 72 70 69 67 64 64 68 70 71 72 72 73 74 75 75 75 74 75 75 75 75 75 74 75 75 75 76 77 77 77 79 80 81 81 81 82 82 81 81 80 80 81
50 58 61 61 59 58 59 61 64 64 62 59 57 58 62 65 69 71 70 68 67 67 68 70 68 66 66 66 68 68 68 68 70 73 74 74 74 74 75 74 74 74 74 75 75 74 75 76 77 77 76 77 79 80 81 82 82 80 79 78 78 79 79
57 59 60 61 59 56 60 64 63 63 63 61 59 60 63 65 69 72 71 69 66 66 67 67 68 68 68 68 68 67 67 68 69 70 72 74 74 74 75 75 74 74 74 74 75 74 76 76 77 76 76 77 77 79 79 80 80 80 79 78 77 77 78
54 60 61 62 61 62 64 63 62 62 63 62 60 60 62 65 69 71 71 68 66 65 65 66 68 70 69 69 68 67 68 69 70 70 70 70 71 72 73 74 74 74 74 75 75 76 76 76 76 76 76 77 78 79 80 81 81 80 79 78 77 77 78